| time (UTC) | temp C | wind direction | speed KPH | gust KPH | rain 1hr cm | rain 24hr cm | rain mn cm | humidity % | barometer mb |
| 20260502210459 | 14 | 276 | 6.4 | 16.1 | 0.00 | 0.00 | 0.00 | 45 | 1010.9 |
| 20260502210400 | 14 | 271 | 6.4 | 16.1 | 0.00 | 0.00 | 0.00 | 47 | 1010.9 |
| 20260502210300 | 14 | 271 | 8.0 | 16.1 | 0.00 | 0.00 | 0.00 | 46 | 1010.8 |
| 20260502210159 | 14 | 292 | 8.0 | 16.1 | 0.00 | 0.00 | 0.00 | 46 | 1010.9 |
| 20260502210056 | 15 | 323 | 8.0 | 16.1 | 0.00 | 0.00 | 0.00 | 45 | 1010.8 |
| 20260502205951 | 15 | 277 | 8.0 | 16.1 | 0.00 | 0.00 | 0.00 | 45 | 1010.8 |
| 20260502205849 | 15 | 297 | 8.0 | 16.1 | 0.00 | 0.00 | 0.00 | 44 | 1010.8 |
| 20260502205751 | 15 | 330 | 8.0 | 19.3 | 0.00 | 0.00 | 0.00 | 44 | 1010.8 |
| 20260502205651 | 15 | 312 | 8.0 | 19.3 | 0.00 | 0.00 | 0.00 | 42 | 1010.7 |
| 20260502205551 | 15 | 300 | 8.0 | 19.3 | 0.00 | 0.00 | 0.00 | 44 | 1010.7 |
| 20260502205441 | 15 | 286 | 8.0 | 19.3 | 0.00 | 0.00 | 0.00 | 44 | 1010.7 |
| 20260502205340 | 15 | 324 | 8.0 | 19.3 | 0.00 | 0.00 | 0.00 | 43 | 1010.8 |
| 20260502205241 | 15 | 287 | 8.0 | 19.3 | 0.00 | 0.00 | 0.00 | 43 | 1010.8 |
| 20260502205141 | 15 | 281 | 8.0 | 19.3 | 0.00 | 0.00 | 0.00 | 44 | 1010.8 |
| 20260502205041 | 15 | 336 | 6.4 | 19.3 | 0.00 | 0.00 | 0.00 | 43 | 1010.8 |
| 20260502204936 | 15 | 340 | 6.4 | 19.3 | 0.00 | 0.00 | 0.00 | 43 | 1010.7 |
| 20260502204836 | 15 | 302 | 4.8 | 16.1 | 0.00 | 0.00 | 0.00 | 44 | 1010.8 |
| 20260502204736 | 15 | 310 | 4.8 | 16.1 | 0.00 | 0.00 | 0.00 | 44 | 1010.7 |
| 20260502204637 | 15 | 14 | 4.8 | 16.1 | 0.00 | 0.00 | 0.00 | 45 | 1010.7 |
| 20260502204535 | 15 | 350 | 4.8 | 16.1 | 0.00 | 0.00 | 0.00 | 45 | 1010.7 |
| 20260502204431 | 15 | 342 | 4.8 | 16.1 | 0.00 | 0.00 | 0.00 | 45 | 1010.7 |
| 20260502204329 | 15 | 314 | 4.8 | 16.1 | 0.00 | 0.00 | 0.00 | 45 | 1010.7 |
| 20260502204229 | 15 | 341 | 3.2 | 14.5 | 0.00 | 0.00 | 0.00 | 43 | 1010.6 |
| 20260502204128 | 15 | 346 | 3.2 | 14.5 | 0.00 | 0.00 | 0.00 | 44 | 1010.6 |
| 20260502204029 | 15 | 355 | 3.2 | 14.5 | 0.00 | 0.00 | 0.00 | 44 | 1010.6 |
| 20260502203921 | 15 | 355 | 3.2 | 14.5 | 0.00 | 0.00 | 0.00 | 45 | 1010.6 |
| 20260502203818 | 15 | 262 | 3.2 | 14.5 | 0.00 | 0.00 | 0.00 | 46 | 1010.7 |
| 20260502203717 | 15 | 342 | 3.2 | 14.5 | 0.00 | 0.00 | 0.00 | 46 | 1010.7 |
| 20260502203618 | 15 | 333 | 3.2 | 14.5 | 0.00 | 0.00 | 0.00 | 44 | 1010.7 |
| 20260502203518 | 15 | 5 | 1.6 | 8.0 | 0.00 | 0.00 | 0.00 | 44 | 1010.7 |
| 20260502203412 | 15 | 355 | 1.6 | 6.4 | 0.00 | 0.00 | 0.00 | 43 | 1010.7 |
| 20260502203312 | 15 | 5 | 1.6 | 6.4 | 0.00 | 0.00 | 0.00 | 43 | 1010.7 |
| 20260502203213 | 15 | 10 | 0.0 | 6.4 | 0.00 | 0.00 | 0.00 | 44 | 1010.8 |
| 20260502203112 | 15 | 14 | 0.0 | 3.2 | 0.00 | 0.00 | 0.00 | 43 | 1010.7 |
| 20260502203013 | 15 | 14 | 0.0 | 3.2 | 0.00 | 0.00 | 0.00 | 44 | 1010.7 |
| 20260502202912 | 15 | 13 | 0.0 | 3.2 | 0.00 | 0.00 | 0.00 | 42 | 1010.8 |
| 20260502202811 | 15 | 10 | 0.0 | 3.2 | 0.00 | 0.00 | 0.00 | 42 | 1010.7 |
| 20260502202710 | 15 | 348 | 0.0 | 3.2 | 0.00 | 0.00 | 0.00 | 44 | 1010.8 |
| 20260502202609 | 15 | 345 | 0.0 | 3.2 | 0.00 | 0.00 | 0.00 | 43 | 1010.7 |
| 20260502202506 | 15 | 318 | 1.6 | 4.8 | 0.00 | 0.00 | 0.00 | 45 | 1010.8 |
| 20260502202400 | 15 | 327 | 1.6 | 8.0 | 0.00 | 0.00 | 0.00 | 43 | 1010.8 |
| 20260502202301 | 15 | 279 | 1.6 | 8.0 | 0.00 | 0.00 | 0.00 | 43 | 1010.9 |
| 20260502202201 | 15 | 355 | 3.2 | 11.3 | 0.00 | 0.00 | 0.00 | 42 | 1010.8 |
| 20260502202059 | 15 | 311 | 3.2 | 11.3 | 0.00 | 0.00 | 0.00 | 45 | 1010.8 |
| 20260502201957 | 15 | 337 | 3.2 | 11.3 | 0.00 | 0.00 | 0.00 | 44 | 1010.9 |
| 20260502201851 | 15 | 337 | 3.2 | 14.5 | 0.00 | 0.00 | 0.00 | 44 | 1010.8 |
| 20260502201751 | 15 | 336 | 4.8 | 14.5 | 0.00 | 0.00 | 0.00 | 42 | 1010.9 |
| 20260502201650 | 15 | 336 | 4.8 | 14.5 | 0.00 | 0.00 | 0.00 | 43 | 1010.8 |
| 20260502201550 | 15 | 350 | 6.4 | 14.5 | 0.00 | 0.00 | 0.00 | 44 | 1010.8 |
| 20260502201450 | 15 | 355 | 6.4 | 14.5 | 0.00 | 0.00 | 0.00 | 45 | 1010.8 |
| 20260502201347 | 15 | 295 | 6.4 | 14.5 | 0.00 | 0.00 | 0.00 | 44 | 1010.8 |
| 20260502201247 | 15 | 281 | 6.4 | 14.5 | 0.00 | 0.00 | 0.00 | 44 | 1010.8 |
| 20260502201146 | 15 | 300 | 6.4 | 14.5 | 0.00 | 0.00 | 0.00 | 45 | 1010.8 |
| 20260502201045 | 15 | 308 | 8.0 | 16.1 | 0.00 | 0.00 | 0.00 | 43 | 1010.9 |
| 20260502200944 | 15 | 308 | 8.0 | 16.1 | 0.00 | 0.00 | 0.00 | 45 | 1010.9 |
| 20260502200837 | 15 | 342 | 8.0 | 16.1 | 0.00 | 0.00 | 0.00 | 44 | 1010.9 |
| 20260502200735 | 15 | 315 | 8.0 | 16.1 | 0.00 | 0.00 | 0.00 | 44 | 1011.0 |
| 20260502200636 | 15 | 284 | 8.0 | 16.1 | 0.00 | 0.00 | 0.00 | 46 | 1010.9 |
| 20260502200537 | 15 | 342 | 8.0 | 19.3 | 0.00 | 0.00 | 0.00 | 46 | 1010.9 |
| 20260502200434 | 15 | 343 | 9.7 | 19.3 | 0.00 | 0.00 | 0.00 | 44 | 1011.0 |
| 20260502200331 | 15 | 292 | 9.7 | 19.3 | 0.00 | 0.00 | 0.00 | 45 | 1011.0 |
| 20260502200228 | 15 | 338 | 8.0 | 19.3 | 0.00 | 0.00 | 0.00 | 45 | 1011.0 |
| 20260502200128 | 15 | 309 | 8.0 | 19.3 | 0.00 | 0.00 | 0.00 | 44 | 1011.0 |
| 20260502200029 | 15 | 344 | 6.4 | 19.3 | 0.00 | 0.00 | 0.00 | 43 | 1011.0 |
| 20260502195929 | 15 | 296 | 6.4 | 19.3 | 0.00 | 0.00 | 0.00 | 43 | 1011.0 |
| 20260502195822 | 15 | 296 | 6.4 | 19.3 | 0.00 | 0.00 | 0.00 | 43 | 1011.0 |
| 20260502195722 | 15 | 313 | 6.4 | 19.3 | 0.00 | 0.00 | 0.00 | 44 | 1010.9 |
| 20260502195623 | 15 | 336 | 4.8 | 19.3 | 0.00 | 0.00 | 0.00 | 44 | 1011.0 |
| 20260502195522 | 15 | 351 | 4.8 | 17.7 | 0.00 | 0.00 | 0.00 | 43 | 1011.0 |
| 20260502195423 | 15 | 325 | 3.2 | 17.7 | 0.00 | 0.00 | 0.00 | 46 | 1011.1 |
| 20260502195316 | 15 | 349 | 3.2 | 11.3 | 0.00 | 0.00 | 0.00 | 46 | 1011.0 |
| 20260502195217 | 15 | 83 | 3.2 | 11.3 | 0.00 | 0.00 | 0.00 | 45 | 1011.1 |
| 20260502195117 | 15 | 83 | 3.2 | 11.3 | 0.00 | 0.00 | 0.00 | 46 | 1011.0 |
| 20260502195014 | 15 | 83 | 4.8 | 11.3 | 0.00 | 0.00 | 0.00 | 46 | 1011.0 |
| 20260502194913 | 15 | 70 | 4.8 | 11.3 | 0.00 | 0.00 | 0.00 | 45 | 1011.1 |
| 20260502194807 | 15 | 0 | 4.8 | 11.3 | 0.00 | 0.00 | 0.00 | 45 | 1011.1 |
| 20260502194706 | 15 | 351 | 4.8 | 11.3 | 0.00 | 0.00 | 0.00 | 46 | 1011.0 |
| 20260502194607 | 15 | 340 | 4.8 | 11.3 | 0.00 | 0.00 | 0.00 | 43 | 1011.0 |
| 20260502194507 | 15 | 309 | 4.8 | 11.3 | 0.00 | 0.00 | 0.00 | 45 | 1011.1 |
| 20260502194406 | 15 | 339 | 4.8 | 12.9 | 0.00 | 0.00 | 0.00 | 44 | 1011.1 |
| 20260502194301 | 15 | 277 | 6.4 | 12.9 | 0.00 | 0.00 | 0.00 | 43 | 1011.1 |
| 20260502194159 | 15 | 269 | 4.8 | 12.9 | 0.00 | 0.00 | 0.00 | 44 | 1011.1 |
| 20260502194101 | 15 | 331 | 4.8 | 12.9 | 0.00 | 0.00 | 0.00 | 46 | 1011.1 |
| 20260502194000 | 15 | 35 | 4.8 | 12.9 | 0.00 | 0.00 | 0.00 | 46 | 1011.2 |
| 20260502193901 | 15 | 31 | 4.8 | 12.9 | 0.00 | 0.00 | 0.00 | 44 | 1011.2 |
| 20260502193752 | 15 | 19 | 4.8 | 12.9 | 0.00 | 0.00 | 0.00 | 45 | 1011.2 |
| 20260502193651 | 15 | 16 | 4.8 | 12.9 | 0.00 | 0.00 | 0.00 | 43 | 1011.3 |
| 20260502193551 | 15 | 294 | 3.2 | 12.9 | 0.00 | 0.00 | 0.00 | 44 | 1011.3 |
| 20260502193451 | 15 | 286 | 3.2 | 12.9 | 0.00 | 0.00 | 0.00 | 45 | 1011.3 |
| 20260502193350 | 15 | 318 | 3.2 | 8.0 | 0.00 | 0.00 | 0.00 | 45 | 1011.3 |
| 20260502193246 | 15 | 14 | 3.2 | 9.7 | 0.00 | 0.00 | 0.00 | 46 | 1011.3 |
| 20260502193146 | 15 | 34 | 3.2 | 9.7 | 0.00 | 0.00 | 0.00 | 44 | 1011.4 |
| 20260502193046 | 15 | 32 | 3.2 | 9.7 | 0.00 | 0.00 | 0.00 | 46 | 1011.4 |
| 20260502192947 | 15 | 32 | 3.2 | 9.7 | 0.00 | 0.00 | 0.00 | 46 | 1011.4 |
| 20260502192845 | 15 | 39 | 3.2 | 9.7 | 0.00 | 0.00 | 0.00 | 46 | 1011.3 |
| 20260502192741 | 15 | 63 | 4.8 | 12.9 | 0.00 | 0.00 | 0.00 | 46 | 1011.3 |
| 20260502192638 | 15 | 97 | 4.8 | 12.9 | 0.00 | 0.00 | 0.00 | 44 | 1011.4 |
| 20260502192538 | 15 | 97 | 4.8 | 12.9 | 0.00 | 0.00 | 0.00 | 44 | 1011.4 |
| 20260502192437 | 15 | 97 | 4.8 | 12.9 | 0.00 | 0.00 | 0.00 | 44 | 1011.4 |
| 20260502192339 | 15 | 94 | 4.8 | 12.9 | 0.00 | 0.00 | 0.00 | 44 | 1011.4 |
| 20260502192231 | 15 | 67 | 4.8 | 12.9 | 0.00 | 0.00 | 0.00 | 44 | 1011.5 |
| 20260502192127 | 15 | 36 | 4.8 | 12.9 | 0.00 | 0.00 | 0.00 | 45 | 1011.4 |
| 20260502192028 | 15 | 34 | 4.8 | 12.9 | 0.00 | 0.00 | 0.00 | 45 | 1011.5 |
| 20260502191928 | 15 | 11 | 4.8 | 12.9 | 0.00 | 0.00 | 0.00 | 46 | 1011.4 |
| 20260502191829 | 15 | 34 | 4.8 | 17.7 | 0.00 | 0.00 | 0.00 | 48 | 1011.4 |
| 20260502191723 | 15 | 17 | 4.8 | 17.7 | 0.00 | 0.00 | 0.00 | 46 | 1011.4 |
| 20260502191625 | 15 | 37 | 4.8 | 17.7 | 0.00 | 0.00 | 0.00 | 45 | 1011.5 |
| 20260502191524 | 15 | 279 | 4.8 | 17.7 | 0.00 | 0.00 | 0.00 | 45 | 1011.5 |
| 20260502191423 | 15 | 51 | 4.8 | 17.7 | 0.00 | 0.00 | 0.00 | 45 | 1011.4 |
| 20260502191322 | 15 | 49 | 4.8 | 17.7 | 0.00 | 0.00 | 0.00 | 47 | 1011.4 |
| 20260502191217 | 15 | 19 | 4.8 | 17.7 | 0.00 | 0.00 | 0.00 | 47 | 1011.4 |
| 20260502191117 | 15 | 19 | 4.8 | 17.7 | 0.00 | 0.00 | 0.00 | 49 | 1011.4 |
| 20260502191017 | 15 | 336 | 4.8 | 17.7 | 0.00 | 0.00 | 0.00 | 43 | 1011.4 |
| 20260502190916 | 15 | 292 | 4.8 | 17.7 | 0.00 | 0.00 | 0.00 | 44 | 1011.5 |
| 20260502190817 | 15 | 355 | 4.8 | 12.9 | 0.00 | 0.00 | 0.00 | 44 | 1011.4 |
| 20260502190706 | 15 | 21 | 4.8 | 11.3 | 0.00 | 0.00 | 0.00 | 45 | 1011.5 |
| 20260502190606 | 15 | 5 | 4.8 | 11.3 | 0.00 | 0.00 | 0.00 | 46 | 1011.5 |
| 20260502190505 | 15 | 5 | 4.8 | 11.3 | 0.00 | 0.00 | 0.00 | 46 | 1011.5 |
| 20260502190406 | 15 | 15 | 4.8 | 11.3 | 0.00 | 0.00 | 0.00 | 47 | 1011.4 |
| 20260502190307 | 15 | 151 | 4.8 | 11.3 | 0.00 | 0.00 | 0.00 | 46 | 1011.5 |
| 20260502190202 | 14 | 124 | 4.8 | 11.3 | 0.00 | 0.00 | 0.00 | 45 | 1011.6 |
| 20260502190059 | 14 | 121 | 4.8 | 12.9 | 0.00 | 0.00 | 0.00 | 47 | 1011.5 |
| 20260502190001 | 14 | 112 | 4.8 | 12.9 | 0.00 | 0.00 | 0.00 | 45 | 1011.6 |
| 20260502185859 | 14 | 110 | 4.8 | 12.9 | 0.00 | 0.00 | 0.00 | 48 | 1011.7 |
| 20260502185801 | 14 | 117 | 4.8 | 12.9 | 0.00 | 0.00 | 0.00 | 45 | 1011.7 |
| 20260502185658 | 14 | 121 | 4.8 | 12.9 | 0.00 | 0.00 | 0.00 | 45 | 1011.7 |
| 20260502185559 | 14 | 121 | 4.8 | 12.9 | 0.00 | 0.00 | 0.00 | 46 | 1011.7 |
| 20260502185456 | 14 | 121 | 4.8 | 12.9 | 0.00 | 0.00 | 0.00 | 47 | 1011.8 |
| 20260502185356 | 14 | 130 | 4.8 | 12.9 | 0.00 | 0.00 | 0.00 | 45 | 1011.8 |
| 20260502185255 | 14 | 131 | 4.8 | 12.9 | 0.00 | 0.00 | 0.00 | 45 | 1011.7 |
| 20260502185145 | 14 | 111 | 4.8 | 12.9 | 0.00 | 0.00 | 0.00 | 45 | 1011.7 |
| 20260502185046 | 14 | 114 | 3.2 | 11.3 | 0.00 | 0.00 | 0.00 | 47 | 1011.7 |
| 20260502184947 | 14 | 114 | 3.2 | 11.3 | 0.00 | 0.00 | 0.00 | 46 | 1011.8 |
| 20260502184846 | 14 | 115 | 3.2 | 9.7 | 0.00 | 0.00 | 0.00 | 46 | 1011.7 |
| 20260502184746 | 14 | 88 | 3.2 | 6.4 | 0.00 | 0.00 | 0.00 | 45 | 1011.7 |
| 20260502184641 | 14 | 82 | 3.2 | 6.4 | 0.00 | 0.00 | 0.00 | 46 | 1011.7 |
| 20260502184538 | 14 | 222 | 3.2 | 8.0 | 0.00 | 0.00 | 0.00 | 45 | 1011.7 |
| 20260502184437 | 14 | 221 | 3.2 | 8.0 | 0.00 | 0.00 | 0.00 | 45 | 1011.8 |
| 20260502184338 | 14 | 17 | 3.2 | 8.0 | 0.00 | 0.00 | 0.00 | 47 | 1012.0 |
| 20260502184239 | 13 | 310 | 3.2 | 9.7 | 0.00 | 0.00 | 0.00 | 45 | 1011.7 |
| 20260502184132 | 13 | 281 | 4.8 | 14.5 | 0.00 | 0.00 | 0.00 | 46 | 1011.8 |
| 20260502184032 | 13 | 19 | 4.8 | 14.5 | 0.00 | 0.00 | 0.00 | 47 | 1012.0 |
| 20260502183933 | 13 | 22 | 4.8 | 14.5 | 0.00 | 0.00 | 0.00 | 46 | 1012.0 |
| 20260502183832 | 13 | 288 | 4.8 | 14.5 | 0.00 | 0.00 | 0.00 | 45 | 1012.0 |
| 20260502183733 | 13 | 250 | 6.4 | 16.1 | 0.00 | 0.00 | 0.00 | 45 | 1011.8 |
| 20260502183622 | 13 | 249 | 6.4 | 16.1 | 0.00 | 0.00 | 0.00 | 45 | 1011.8 |
| 20260502183522 | 13 | 9 | 6.4 | 16.1 | 0.00 | 0.00 | 0.00 | 46 | 1011.8 |
| 20260502183421 | 13 | 10 | 6.4 | 16.1 | 0.00 | 0.00 | 0.00 | 46 | 1011.8 |
| 20260502183323 | 13 | 340 | 6.4 | 16.1 | 0.00 | 0.00 | 0.00 | 45 | 1012.0 |
| 20260502183223 | 13 | 348 | 6.4 | 16.1 | 0.00 | 0.00 | 0.00 | 47 | 1012.0 |
| 20260502183118 | 13 | 5 | 6.4 | 16.1 | 0.00 | 0.00 | 0.00 | 48 | 1012.0 |
| 20260502183017 | 13 | 5 | 6.4 | 16.1 | 0.00 | 0.00 | 0.00 | 48 | 1011.8 |
| 20260502182917 | 13 | 288 | 6.4 | 16.1 | 0.00 | 0.00 | 0.00 | 47 | 1011.8 |
| 20260502182817 | 13 | 329 | 6.4 | 16.1 | 0.00 | 0.00 | 0.00 | 47 | 1011.7 |
| 20260502182716 | 13 | 100 | 4.8 | 16.1 | 0.00 | 0.00 | 0.00 | 46 | 1011.7 |
| 20260502182611 | 13 | 30 | 4.8 | 16.1 | 0.00 | 0.00 | 0.00 | 46 | 1011.7 |
| 20260502182511 | 13 | 57 | 4.8 | 16.1 | 0.00 | 0.00 | 0.00 | 47 | 1011.7 |
| 20260502182410 | 13 | 46 | 4.8 | 16.1 | 0.00 | 0.00 | 0.00 | 48 | 1011.7 |
| 20260502182313 | 13 | 42 | 4.8 | 16.1 | 0.00 | 0.00 | 0.00 | 49 | 1011.7 |
| 20260502182211 | 13 | 109 | 4.8 | 16.1 | 0.00 | 0.00 | 0.00 | 50 | 1011.7 |
| 20260502182100 | 13 | 118 | 4.8 | 16.1 | 0.00 | 0.00 | 0.00 | 47 | 1011.7 |
| 20260502182000 | 13 | 74 | 4.8 | 16.1 | 0.00 | 0.00 | 0.00 | 47 | 1011.8 |
| 20260502181900 | 13 | 286 | 6.4 | 16.1 | 0.00 | 0.00 | 0.00 | 46 | 1011.8 |
| 20260502181800 | 13 | 300 | 6.4 | 16.1 | 0.00 | 0.00 | 0.00 | 46 | 1011.8 |
| 20260502181700 | 13 | 296 | 6.4 | 16.1 | 0.00 | 0.00 | 0.00 | 47 | 1012.0 |
| 20260502181555 | 13 | 351 | 6.4 | 16.1 | 0.00 | 0.00 | 0.00 | 50 | 1012.0 |
| 20260502181455 | 13 | 92 | 6.4 | 16.1 | 0.00 | 0.00 | 0.00 | 47 | 1012.0 |
| 20260502181355 | 13 | 32 | 6.4 | 16.1 | 0.00 | 0.00 | 0.00 | 50 | 1012.0 |
| 20260502181255 | 13 | 95 | 6.4 | 16.1 | 0.00 | 0.00 | 0.00 | 48 | 1011.8 |
| 20260502181155 | 13 | 84 | 6.4 | 16.1 | 0.00 | 0.00 | 0.00 | 47 | 1012.0 |
| 20260502181051 | 13 | 57 | 4.8 | 16.1 | 0.00 | 0.00 | 0.00 | 47 | 1012.0 |
| 20260502180947 | 13 | 92 | 4.8 | 16.1 | 0.00 | 0.00 | 0.00 | 48 | 1012.0 |
| 20260502180849 | 13 | 69 | 4.8 | 16.1 | 0.00 | 0.00 | 0.00 | 48 | 1012.0 |
| 20260502180749 | 13 | 16 | 4.8 | 14.5 | 0.00 | 0.00 | 0.00 | 48 | 1012.1 |
| 20260502180649 | 13 | 340 | 4.8 | 14.5 | 0.00 | 0.00 | 0.00 | 49 | 1012.1 |
| 20260502180538 | 13 | 51 | 3.2 | 14.5 | 0.00 | 0.00 | 0.00 | 48 | 1012.1 |
| 20260502180437 | 13 | 350 | 4.8 | 14.5 | 0.00 | 0.00 | 0.00 | 48 | 1012.1 |
| 20260502180339 | 13 | 82 | 4.8 | 14.5 | 0.00 | 0.00 | 0.00 | 51 | 1012.0 |
| 20260502180239 | 13 | 103 | 4.8 | 14.5 | 0.00 | 0.00 | 0.00 | 49 | 1012.0 |
| 20260502180138 | 13 | 178 | 4.8 | 14.5 | 0.00 | 0.00 | 0.00 | 48 | 1012.1 |
| 20260502170453 | 11 | 98 | 4.8 | 11.3 | 0.00 | 0.00 | 0.00 | 50 | 1012.8 |
| 20260502170351 | 11 | 98 | 4.8 | 11.3 | 0.00 | 0.00 | 0.00 | 50 | 1012.9 |
| 20260502170249 | 11 | 98 | 4.8 | 12.9 | 0.00 | 0.00 | 0.00 | 50 | 1012.9 |
| 20260502170150 | 11 | 92 | 4.8 | 12.9 | 0.00 | 0.00 | 0.00 | 51 | 1013.0 |
| 20260502164337 | 11 | 54 | 4.8 | 12.9 | 0.00 | 0.00 | 0.00 | 52 | 1013.3 |
| 20260502164236 | 11 | 32 | 4.8 | 12.9 | 0.00 | 0.00 | 0.00 | 51 | 1013.4 |
| 20260502164137 | 11 | 32 | 4.8 | 12.9 | 0.00 | 0.00 | 0.00 | 51 | 1013.5 |
| 20260502164035 | 11 | 29 | 4.8 | 12.9 | 0.00 | 0.00 | 0.00 | 51 | 1013.5 |
| 20260502163937 | 11 | 36 | 4.8 | 12.9 | 0.00 | 0.00 | 0.00 | 51 | 1013.5 |
| 20260502163831 | 11 | 87 | 4.8 | 12.9 | 0.00 | 0.00 | 0.00 | 51 | 1013.5 |
| 20260502163730 | 11 | 95 | 6.4 | 12.9 | 0.00 | 0.00 | 0.00 | 51 | 1013.5 |
| 20260502163631 | 11 | 92 | 6.4 | 14.5 | 0.00 | 0.00 | 0.00 | 54 | 1013.4 |
| 20260502163530 | 11 | 72 | 6.4 | 14.5 | 0.00 | 0.00 | 0.00 | 53 | 1013.5 |
| 20260502163429 | 11 | 84 | 6.4 | 14.5 | 0.00 | 0.00 | 0.00 | 55 | 1013.5 |
| 20260502163330 | 10 | 58 | 6.4 | 14.5 | 0.00 | 0.00 | 0.00 | 56 | 1013.5 |
| 20260502163230 | 10 | 10 | 6.4 | 14.5 | 0.00 | 0.00 | 0.00 | 54 | 1013.5 |
| 20260502163131 | 10 | 355 | 6.4 | 14.5 | 0.00 | 0.00 | 0.00 | 55 | 1013.7 |
| 20260502163029 | 10 | 38 | 6.4 | 14.5 | 0.00 | 0.00 | 0.00 | 55 | 1013.7 |
| 20260502162929 | 10 | 22 | 6.4 | 14.5 | 0.00 | 0.00 | 0.00 | 54 | 1013.5 |
| 20260502162829 | 10 | 12 | 6.4 | 14.5 | 0.00 | 0.00 | 0.00 | 55 | 1013.5 |
| 20260502162731 | 10 | 341 | 4.8 | 14.5 | 0.00 | 0.00 | 0.00 | 54 | 1013.7 |
| 20260502162631 | 10 | 340 | 4.8 | 9.7 | 0.00 | 0.00 | 0.00 | 54 | 1013.7 |
| 20260502162529 | 10 | 82 | 4.8 | 9.7 | 0.00 | 0.00 | 0.00 | 54 | 1013.8 |
| 20260502162431 | 10 | 83 | 4.8 | 9.7 | 0.00 | 0.00 | 0.00 | 55 | 1013.7 |
| 20260502162328 | 10 | 41 | 4.8 | 9.7 | 0.00 | 0.00 | 0.00 | 56 | 1013.7 |
| 20260502162227 | 10 | 40 | 4.8 | 8.0 | 0.00 | 0.00 | 0.00 | 55 | 1013.8 |
| 20260502162129 | 10 | 40 | 4.8 | 8.0 | 0.00 | 0.00 | 0.00 | 55 | 1013.8 |
| 20260502162026 | 10 | 40 | 4.8 | 8.0 | 0.00 | 0.00 | 0.00 | 55 | 1013.9 |
| 20260502161926 | 10 | 342 | 4.8 | 8.0 | 0.00 | 0.00 | 0.00 | 56 | 1013.9 |
| 20260502161826 | 10 | 340 | 4.8 | 8.0 | 0.00 | 0.00 | 0.00 | 58 | 1013.9 |
| 20260502161726 | 10 | 47 | 4.8 | 8.0 | 0.00 | 0.00 | 0.00 | 58 | 1013.9 |
| 20260502161626 | 10 | 80 | 4.8 | 8.0 | 0.00 | 0.00 | 0.00 | 57 | 1013.9 |
| 20260502161525 | 10 | 80 | 4.8 | 8.0 | 0.00 | 0.00 | 0.00 | 58 | 1013.9 |
| 20260502161426 | 10 | 34 | 4.8 | 12.9 | 0.00 | 0.00 | 0.00 | 58 | 1014.0 |
| 20260502161325 | 10 | 18 | 4.8 | 12.9 | 0.00 | 0.00 | 0.00 | 57 | 1013.9 |
| 20260502161226 | 10 | 343 | 4.8 | 12.9 | 0.00 | 0.00 | 0.00 | 57 | 1014.0 |
| 20260502161126 | 10 | 343 | 4.8 | 12.9 | 0.00 | 0.00 | 0.00 | 59 | 1014.0 |
| 20260502161025 | 10 | 52 | 4.8 | 12.9 | 0.00 | 0.00 | 0.00 | 59 | 1014.0 |
| 20260502160925 | 10 | 53 | 4.8 | 12.9 | 0.00 | 0.00 | 0.00 | 59 | 1014.0 |
| 20260502160827 | 10 | 55 | 4.8 | 12.9 | 0.00 | 0.00 | 0.00 | 58 | 1014.0 |
| 20260502160725 | 10 | 31 | 4.8 | 12.9 | 0.00 | 0.00 | 0.00 | 58 | 1014.0 |
| 20260502160626 | 10 | 333 | 4.8 | 12.9 | 0.00 | 0.00 | 0.00 | 58 | 1014.1 |
| 20260502160526 | 10 | 313 | 4.8 | 12.9 | 0.00 | 0.00 | 0.00 | 59 | 1014.1 |
| 20260502160426 | 10 | 305 | 4.8 | 11.3 | 0.00 | 0.00 | 0.00 | 58 | 1014.0 |
| 20260502160326 | 10 | 24 | 4.8 | 11.3 | 0.00 | 0.00 | 0.00 | 56 | 1014.0 |
| 20260502160225 | 10 | 23 | 4.8 | 14.5 | 0.00 | 0.00 | 0.00 | 56 | 1013.9 |
| 20260502160126 | 10 | 340 | 4.8 | 14.5 | 0.00 | 0.00 | 0.00 | 56 | 1014.0 |
| 20260502152322 | 8 | 11 | 4.8 | 11.3 | 0.00 | 0.00 | 0.00 | 61 | 1014.0 |
| 20260502152221 | 8 | 18 | 4.8 | 11.3 | 0.00 | 0.00 | 0.00 | 63 | 1014.0 |
| 20260502152122 | 8 | 53 | 4.8 | 9.7 | 0.00 | 0.00 | 0.00 | 62 | 1014.0 |
| 20260502152022 | 8 | 40 | 4.8 | 9.7 | 0.00 | 0.00 | 0.00 | 63 | 1014.0 |
| 20260502151921 | 8 | 341 | 4.8 | 9.7 | 0.00 | 0.00 | 0.00 | 62 | 1014.0 |
| 20260502151821 | 8 | 324 | 4.8 | 9.7 | 0.00 | 0.00 | 0.00 | 62 | 1014.0 |
| 20260502151721 | 8 | 63 | 3.2 | 9.7 | 0.00 | 0.00 | 0.00 | 62 | 1014.0 |
| 20260502151622 | 8 | 20 | 4.8 | 9.7 | 0.00 | 0.00 | 0.00 | 61 | 1014.0 |
| 20260502151521 | 8 | 43 | 4.8 | 9.7 | 0.00 | 0.00 | 0.00 | 62 | 1014.0 |
| 20260502151422 | 8 | 329 | 4.8 | 9.7 | 0.00 | 0.00 | 0.00 | 62 | 1014.0 |
| 20260502151317 | 8 | 20 | 3.2 | 8.0 | 0.00 | 0.00 | 0.00 | 63 | 1014.0 |
| 20260502151217 | 8 | 29 | 3.2 | 8.0 | 0.00 | 0.00 | 0.00 | 64 | 1014.0 |
| 20260502151118 | 8 | 0 | 4.8 | 8.0 | 0.00 | 0.00 | 0.00 | 63 | 1014.0 |
| 20260502151017 | 8 | 5 | 4.8 | 8.0 | 0.00 | 0.00 | 0.00 | 63 | 1014.1 |
| 20260502150917 | 8 | 5 | 4.8 | 8.0 | 0.00 | 0.00 | 0.00 | 63 | 1014.0 |
| 20260502150819 | 8 | 17 | 4.8 | 8.0 | 0.00 | 0.00 | 0.00 | 62 | 1014.0 |
| 20260502150718 | 8 | 17 | 3.2 | 8.0 | 0.00 | 0.00 | 0.00 | 61 | 1014.0 |
| 20260502150618 | 8 | 355 | 3.2 | 8.0 | 0.00 | 0.00 | 0.00 | 62 | 1014.0 |
| 20260502150519 | 8 | 350 | 3.2 | 8.0 | 0.00 | 0.00 | 0.00 | 62 | 1014.0 |
| 20260502150419 | 8 | 26 | 3.2 | 8.0 | 0.00 | 0.00 | 0.00 | 62 | 1014.0 |
| 20260502150317 | 8 | 35 | 3.2 | 8.0 | 0.00 | 0.00 | 0.00 | 61 | 1014.0 |
| 20260502150217 | 8 | 9 | 3.2 | 8.0 | 0.00 | 0.00 | 0.00 | 61 | 1014.0 |
| 20260502150118 | 8 | 28 | 3.2 | 8.0 | 0.00 | 0.00 | 0.00 | 61 | 1014.1 |
| 20260502130656 | 8 | 342 | 9.7 | 16.1 | 0.00 | 0.00 | 0.00 | 71 | 1013.3 |
| 20260502130555 | 8 | 313 | 8.0 | 16.1 | 0.00 | 0.00 | 0.00 | 70 | 1013.3 |
| 20260502130456 | 8 | 323 | 8.0 | 16.1 | 0.00 | 0.00 | 0.00 | 70 | 1013.4 |
| 20260502130349 | 8 | 323 | 8.0 | 16.1 | 0.00 | 0.00 | 0.00 | 71 | 1013.4 |
| 20260502130249 | 8 | 300 | 8.0 | 16.1 | 0.00 | 0.00 | 0.00 | 71 | 1013.4 |
| 20260502130149 | 8 | 313 | 8.0 | 16.1 | 0.00 | 0.00 | 0.00 | 70 | 1013.4 |
| 20260502123811 | 8 | 326 | 6.4 | 11.3 | 0.00 | 0.00 | 0.00 | 74 | 1013.1 |
| 20260502123709 | 8 | 312 | 6.4 | 11.3 | 0.00 | 0.00 | 0.00 | 74 | 1012.9 |
| 20260502123609 | 8 | 309 | 6.4 | 11.3 | 0.00 | 0.00 | 0.00 | 74 | 1012.9 |
| 20260502123511 | 8 | 309 | 6.4 | 11.3 | 0.00 | 0.00 | 0.00 | 74 | 1012.9 |
| 20260502123409 | 8 | 343 | 6.4 | 11.3 | 0.00 | 0.00 | 0.00 | 73 | 1013.1 |
| 20260502123304 | 8 | 355 | 6.4 | 11.3 | 0.00 | 0.00 | 0.00 | 72 | 1013.1 |
| 20260502123203 | 8 | 350 | 6.4 | 11.3 | 0.00 | 0.00 | 0.00 | 72 | 1013.2 |
| 20260502123104 | 8 | 306 | 6.4 | 11.3 | 0.00 | 0.00 | 0.00 | 73 | 1013.1 |
| 20260502123004 | 8 | 292 | 6.4 | 11.3 | 0.00 | 0.00 | 0.00 | 75 | 1013.1 |
| 20260502122904 | 8 | 309 | 6.4 | 11.3 | 0.00 | 0.00 | 0.00 | 75 | 1013.1 |
| 20260502122754 | 8 | 286 | 6.4 | 11.3 | 0.00 | 0.00 | 0.00 | 76 | 1013.1 |
| 20260502122653 | 8 | 333 | 4.8 | 11.3 | 0.00 | 0.00 | 0.00 | 75 | 1013.2 |
| 20260502122554 | 8 | 325 | 4.8 | 11.3 | 0.00 | 0.00 | 0.00 | 75 | 1013.1 |
| 20260502122454 | 8 | 338 | 4.8 | 11.3 | 0.00 | 0.00 | 0.00 | 74 | 1013.2 |
| 20260502122353 | 8 | 313 | 4.8 | 11.3 | 0.00 | 0.00 | 0.00 | 75 | 1013.2 |
| 20260502122246 | 8 | 322 | 4.8 | 11.3 | 0.00 | 0.00 | 0.00 | 75 | 1013.2 |
| 20260502122145 | 8 | 340 | 4.8 | 11.3 | 0.00 | 0.00 | 0.00 | 75 | 1013.2 |
| 20260502122046 | 8 | 321 | 4.8 | 11.3 | 0.00 | 0.00 | 0.00 | 76 | 1013.2 |
| 20260502121945 | 8 | 308 | 4.8 | 11.3 | 0.00 | 0.00 | 0.00 | 75 | 1013.2 |
| 20260502121846 | 8 | 303 | 4.8 | 8.0 | 0.00 | 0.00 | 0.00 | 75 | 1013.2 |
| 20260502121743 | 8 | 325 | 4.8 | 8.0 | 0.00 | 0.00 | 0.00 | 75 | 1013.2 |
| 20260502121641 | 8 | 309 | 4.8 | 8.0 | 0.00 | 0.00 | 0.00 | 74 | 1013.3 |
| 20260502121539 | 8 | 305 | 4.8 | 16.1 | 0.00 | 0.00 | 0.00 | 75 | 1013.2 |
| 20260502121440 | 8 | 306 | 4.8 | 16.1 | 0.00 | 0.00 | 0.00 | 75 | 1013.1 |
| 20260502121340 | 8 | 11 | 4.8 | 16.1 | 0.00 | 0.00 | 0.00 | 75 | 1013.0 |
| 20260502121233 | 8 | 343 | 4.8 | 16.1 | 0.00 | 0.00 | 0.00 | 74 | 1012.9 |
| 20260502121134 | 8 | 343 | 4.8 | 16.1 | 0.00 | 0.00 | 0.00 | 74 | 1012.9 |
| 20260502121033 | 8 | 330 | 4.8 | 16.1 | 0.00 | 0.00 | 0.00 | 74 | 1012.9 |
| 20260502120932 | 8 | 329 | 4.8 | 16.1 | 0.00 | 0.00 | 0.00 | 74 | 1012.8 |
| 20260502120830 | 8 | 329 | 6.4 | 16.1 | 0.00 | 0.00 | 0.00 | 74 | 1012.8 |
| 20260502120727 | 8 | 334 | 6.4 | 16.1 | 0.00 | 0.00 | 0.00 | 73 | 1012.8 |
| 20260502120629 | 8 | 318 | 6.4 | 16.1 | 0.00 | 0.00 | 0.00 | 73 | 1012.7 |
| 20260502120525 | 8 | 323 | 6.4 | 16.1 | 0.00 | 0.00 | 0.00 | 73 | 1012.6 |
| 20260502120426 | 8 | 315 | 6.4 | 16.1 | 0.00 | 0.00 | 0.00 | 73 | 1012.8 |
| 20260502120324 | 8 | 329 | 6.4 | 16.1 | 0.00 | 0.00 | 0.00 | 73 | 1012.8 |
| 20260502120217 | 8 | 11 | 6.4 | 16.1 | 0.00 | 0.00 | 0.00 | 73 | 1012.8 |
| 20260502120118 | 8 | 335 | 6.4 | 16.1 | 0.00 | 0.00 | 0.00 | 73 | 1012.6 |
| 20260502115917 | 8 | 355 | 6.4 | 16.1 | 0.00 | 0.00 | 0.00 | 73 | 1012.9 |
| 20260502115818 | 8 | 355 | 6.4 | 16.1 | 0.00 | 0.00 | 0.00 | 73 | 1012.9 |
| 20260502115707 | 8 | 313 | 6.4 | 16.1 | 0.00 | 0.00 | 0.00 | 74 | 1012.8 |
| 20260502115607 | 8 | 317 | 6.4 | 14.5 | 0.00 | 0.00 | 0.00 | 74 | 1012.8 |
| 20260502115508 | 8 | 341 | 6.4 | 14.5 | 0.00 | 0.00 | 0.00 | 73 | 1012.9 |
| 20260502115406 | 8 | 350 | 6.4 | 16.1 | 0.00 | 0.00 | 0.00 | 73 | 1012.8 |
| 20260502115308 | 8 | 346 | 6.4 | 16.1 | 0.00 | 0.00 | 0.00 | 74 | 1012.8 |
| 20260502115201 | 8 | 343 | 6.4 | 16.1 | 0.00 | 0.00 | 0.00 | 75 | 1012.8 |
| 20260502115101 | 8 | 310 | 6.4 | 16.1 | 0.00 | 0.00 | 0.00 | 75 | 1012.8 |
| 20260502115001 | 8 | 0 | 8.0 | 16.1 | 0.00 | 0.00 | 0.00 | 75 | 1012.9 |
| 20260502114901 | 8 | 0 | 8.0 | 16.1 | 0.00 | 0.00 | 0.00 | 74 | 1012.8 |
| 20260502114801 | 8 | 0 | 8.0 | 16.1 | 0.00 | 0.00 | 0.00 | 75 | 1013.0 |
| 20260502114655 | 8 | 5 | 8.0 | 16.1 | 0.00 | 0.00 | 0.00 | 76 | 1013.0 |
| 20260502114555 | 8 | 327 | 8.0 | 16.1 | 0.00 | 0.00 | 0.00 | 76 | 1013.2 |
| 20260502114455 | 8 | 313 | 8.0 | 14.5 | 0.00 | 0.00 | 0.00 | 77 | 1013.0 |
| 20260502114355 | 8 | 344 | 8.0 | 14.5 | 0.00 | 0.00 | 0.00 | 77 | 1013.0 |
| 20260502114256 | 8 | 284 | 8.0 | 14.5 | 0.00 | 0.00 | 0.00 | 77 | 1012.9 |
| 20260502114147 | 8 | 329 | 6.4 | 14.5 | 0.00 | 0.00 | 0.00 | 77 | 1012.9 |
| 20260502114045 | 8 | 326 | 6.4 | 14.5 | 0.00 | 0.00 | 0.00 | 77 | 1012.9 |
| 20260502113946 | 8 | 307 | 6.4 | 14.5 | 0.00 | 0.00 | 0.00 | 77 | 1012.9 |
| 20260502113846 | 8 | 309 | 6.4 | 14.5 | 0.00 | 0.00 | 0.00 | 77 | 1012.9 |
| 20260502113746 | 8 | 348 | 6.4 | 14.5 | 0.00 | 0.00 | 0.00 | 77 | 1012.8 |
| 20260502113640 | 8 | 351 | 6.4 | 12.9 | 0.00 | 0.00 | 0.00 | 77 | 1012.9 |
| 20260502113539 | 8 | 355 | 6.4 | 12.9 | 0.00 | 0.00 | 0.00 | 77 | 1012.9 |
| 20260502113440 | 8 | 339 | 6.4 | 14.5 | 0.00 | 0.00 | 0.00 | 77 | 1012.9 |
| 20260502113339 | 8 | 320 | 6.4 | 14.5 | 0.00 | 0.00 | 0.00 | 77 | 1012.9 |
| 20260502113240 | 8 | 318 | 6.4 | 14.5 | 0.00 | 0.00 | 0.00 | 77 | 1012.9 |
| 20260502113134 | 8 | 304 | 8.0 | 14.5 | 0.00 | 0.00 | 0.00 | 77 | 1012.9 |
| 20260502113034 | 8 | 335 | 8.0 | 14.5 | 0.00 | 0.00 | 0.00 | 77 | 1012.9 |
| 20260502112934 | 8 | 330 | 8.0 | 14.5 | 0.00 | 0.00 | 0.00 | 78 | 1013.0 |
| 20260502112833 | 8 | 322 | 8.0 | 14.5 | 0.00 | 0.00 | 0.00 | 77 | 1012.8 |
| 20260502112733 | 8 | 310 | 6.4 | 14.5 | 0.00 | 0.00 | 0.00 | 78 | 1012.9 |
| 20260502112623 | 8 | 301 | 6.4 | 14.5 | 0.00 | 0.00 | 0.00 | 77 | 1012.9 |
| 20260502112524 | 8 | 317 | 6.4 | 14.5 | 0.00 | 0.00 | 0.00 | 77 | 1012.9 |
| 20260502112424 | 8 | 325 | 6.4 | 14.5 | 0.00 | 0.00 | 0.00 | 77 | 1012.8 |
| 20260502112323 | 8 | 311 | 6.4 | 11.3 | 0.00 | 0.00 | 0.00 | 78 | 1012.8 |
| 20260502112234 | 8 | 319 | 6.4 | 11.3 | 0.00 | 0.00 | 0.00 | 78 | 1012.7 |
| 20260502112118 | 8 | 306 | 6.4 | 11.3 | 0.00 | 0.00 | 0.00 | 78 | 1012.7 |
| 20260502112018 | 8 | 355 | 6.4 | 11.3 | 0.00 | 0.00 | 0.00 | 78 | 1012.8 |
| 20260502111917 | 8 | 319 | 6.4 | 11.3 | 0.00 | 0.00 | 0.00 | 78 | 1012.8 |
| 20260502111818 | 8 | 313 | 6.4 | 11.3 | 0.00 | 0.00 | 0.00 | 78 | 1012.8 |
| 20260502111717 | 8 | 313 | 6.4 | 11.3 | 0.00 | 0.00 | 0.00 | 78 | 1012.8 |
| 20260502111612 | 8 | 338 | 6.4 | 11.3 | 0.00 | 0.00 | 0.00 | 78 | 1012.8 |
| 20260502111511 | 8 | 297 | 6.4 | 11.3 | 0.00 | 0.00 | 0.00 | 78 | 1012.9 |
| 20260502111412 | 8 | 313 | 6.4 | 11.3 | 0.00 | 0.00 | 0.00 | 78 | 1012.9 |
| 20260502111310 | 8 | 315 | 6.4 | 11.3 | 0.00 | 0.00 | 0.00 | 78 | 1012.8 |
| 20260502111212 | 8 | 302 | 4.8 | 12.9 | 0.00 | 0.00 | 0.00 | 77 | 1012.6 |
| 20260502111102 | 8 | 348 | 6.4 | 12.9 | 0.00 | 0.00 | 0.00 | 77 | 1012.7 |
| 20260502111002 | 8 | 325 | 6.4 | 14.5 | 0.00 | 0.00 | 0.00 | 77 | 1012.6 |
| 20260502110902 | 8 | 309 | 6.4 | 14.5 | 0.00 | 0.00 | 0.00 | 77 | 1012.7 |
| 20260502110800 | 8 | 331 | 6.4 | 14.5 | 0.00 | 0.00 | 0.00 | 77 | 1012.7 |
| 20260502110701 | 8 | 327 | 8.0 | 14.5 | 0.00 | 0.00 | 0.00 | 77 | 1012.7 |
| 20260502110558 | 8 | 355 | 8.0 | 14.5 | 0.00 | 0.00 | 0.00 | 77 | 1012.7 |
| 20260502110456 | 8 | 355 | 8.0 | 16.1 | 0.00 | 0.00 | 0.00 | 77 | 1012.7 |
| 20260502110354 | 8 | 355 | 8.0 | 16.1 | 0.00 | 0.00 | 0.00 | 77 | 1012.8 |
| 20260502110258 | 8 | 5 | 8.0 | 16.1 | 0.00 | 0.00 | 0.00 | 77 | 1012.8 |
| 20260502110156 | 8 | 355 | 9.7 | 16.1 | 0.00 | 0.00 | 0.00 | 77 | 1012.8 |
| 20260502110052 | 8 | 339 | 9.7 | 16.1 | 0.00 | 0.00 | 0.00 | 77 | 1012.8 |
| 20260502105950 | 8 | 311 | 9.7 | 16.1 | 0.00 | 0.00 | 0.00 | 76 | 1012.8 |
| 20260502105850 | 8 | 344 | 8.0 | 16.1 | 0.00 | 0.00 | 0.00 | 76 | 1012.8 |
| 20260502105749 | 8 | 339 | 8.0 | 16.1 | 0.00 | 0.00 | 0.00 | 77 | 1012.7 |
| 20260502105649 | 8 | 307 | 8.0 | 16.1 | 0.00 | 0.00 | 0.00 | 77 | 1012.8 |
| 20260502105540 | 8 | 318 | 8.0 | 14.5 | 0.00 | 0.00 | 0.00 | 77 | 1012.6 |
| 20260502105440 | 8 | 355 | 8.0 | 14.5 | 0.00 | 0.00 | 0.00 | 77 | 1012.6 |
| 20260502105340 | 8 | 355 | 8.0 | 14.5 | 0.00 | 0.00 | 0.00 | 77 | 1012.5 |
| 20260502105238 | 8 | 321 | 8.0 | 14.5 | 0.00 | 0.00 | 0.00 | 77 | 1012.5 |
| 20260502105139 | 8 | 326 | 8.0 | 14.5 | 0.00 | 0.00 | 0.00 | 77 | 1012.4 |
| 20260502105035 | 8 | 355 | 8.0 | 14.5 | 0.00 | 0.00 | 0.00 | 77 | 1012.4 |
| 20260502104934 | 8 | 341 | 8.0 | 14.5 | 0.00 | 0.00 | 0.00 | 78 | 1012.4 |
| 20260502104834 | 8 | 345 | 8.0 | 14.5 | 0.00 | 0.00 | 0.00 | 78 | 1012.4 |
| 20260502104734 | 8 | 313 | 8.0 | 14.5 | 0.00 | 0.00 | 0.00 | 78 | 1012.5 |
| 20260502104633 | 8 | 338 | 8.0 | 14.5 | 0.00 | 0.00 | 0.00 | 78 | 1012.6 |
| 20260502104528 | 8 | 297 | 8.0 | 14.5 | 0.00 | 0.00 | 0.00 | 77 | 1012.6 |
| 20260502104430 | 8 | 325 | 8.0 | 14.5 | 0.00 | 0.00 | 0.00 | 78 | 1012.6 |
| 20260502104329 | 8 | 331 | 8.0 | 14.5 | 0.00 | 0.00 | 0.00 | 78 | 1012.6 |
| 20260502104229 | 8 | 349 | 6.4 | 14.5 | 0.00 | 0.00 | 0.00 | 78 | 1012.6 |
| 20260502104128 | 8 | 325 | 6.4 | 14.5 | 0.00 | 0.00 | 0.00 | 79 | 1012.6 |
| 20260502104021 | 8 | 329 | 6.4 | 14.5 | 0.00 | 0.00 | 0.00 | 78 | 1012.5 |
| 20260502103922 | 8 | 355 | 6.4 | 14.5 | 0.00 | 0.00 | 0.00 | 79 | 1012.5 |
| 20260502103819 | 8 | 319 | 6.4 | 14.5 | 0.00 | 0.00 | 0.00 | 78 | 1012.4 |
| 20260502103718 | 8 | 322 | 6.4 | 11.3 | 0.00 | 0.00 | 0.00 | 78 | 1012.4 |
| 20260502103618 | 8 | 311 | 4.8 | 11.3 | 0.00 | 0.00 | 0.00 | 78 | 1012.5 |
| 20260502103513 | 8 | 311 | 4.8 | 11.3 | 0.00 | 0.00 | 0.00 | 78 | 1012.4 |
| 20260502103413 | 8 | 15 | 4.8 | 11.3 | 0.00 | 0.00 | 0.00 | 78 | 1012.4 |
| 20260502103313 | 8 | 34 | 4.8 | 8.0 | 0.00 | 0.00 | 0.00 | 78 | 1012.4 |
| 20260502103214 | 8 | 355 | 4.8 | 8.0 | 0.00 | 0.00 | 0.00 | 78 | 1012.4 |
| 20260502103111 | 8 | 0 | 4.8 | 8.0 | 0.00 | 0.00 | 0.00 | 78 | 1012.3 |
| 20260502103008 | 8 | 351 | 4.8 | 8.0 | 0.00 | 0.00 | 0.00 | 79 | 1012.3 |
| 20260502102905 | 8 | 355 | 4.8 | 8.0 | 0.00 | 0.00 | 0.00 | 79 | 1012.3 |
| 20260502102806 | 8 | 323 | 4.8 | 11.3 | 0.00 | 0.00 | 0.00 | 79 | 1012.4 |
| 20260502102706 | 8 | 313 | 4.8 | 11.3 | 0.00 | 0.00 | 0.00 | 79 | 1012.4 |
| 20260502102605 | 8 | 308 | 4.8 | 11.3 | 0.00 | 0.00 | 0.00 | 78 | 1012.4 |
| 20260502102455 | 8 | 331 | 6.4 | 11.3 | 0.00 | 0.00 | 0.00 | 79 | 1012.4 |
| 20260502102355 | 8 | 327 | 6.4 | 11.3 | 0.00 | 0.00 | 0.00 | 78 | 1012.4 |
| 20260502102256 | 8 | 332 | 6.4 | 11.3 | 0.00 | 0.00 | 0.00 | 78 | 1012.4 |
| 20260502102155 | 8 | 332 | 6.4 | 11.3 | 0.00 | 0.00 | 0.00 | 78 | 1012.4 |
| 20260502102055 | 8 | 333 | 6.4 | 11.3 | 0.00 | 0.00 | 0.00 | 78 | 1012.4 |
| 20260502101952 | 8 | 326 | 4.8 | 11.3 | 0.00 | 0.00 | 0.00 | 78 | 1012.4 |
| 20260502101848 | 8 | 306 | 4.8 | 11.3 | 0.00 | 0.00 | 0.00 | 78 | 1012.3 |
| 20260502101749 | 9 | 325 | 4.8 | 9.7 | 0.00 | 0.00 | 0.00 | 78 | 1012.3 |
| 20260502101649 | 9 | 310 | 4.8 | 9.7 | 0.00 | 0.00 | 0.00 | 78 | 1012.2 |
| 20260502101549 | 9 | 333 | 4.8 | 9.7 | 0.00 | 0.00 | 0.00 | 78 | 1012.2 |
| 20260502101444 | 9 | 331 | 4.8 | 9.7 | 0.00 | 0.00 | 0.00 | 78 | 1012.3 |
| 20260502101342 | 9 | 355 | 4.8 | 9.7 | 0.00 | 0.00 | 0.00 | 78 | 1012.2 |
| 20260502101244 | 9 | 355 | 4.8 | 9.7 | 0.00 | 0.00 | 0.00 | 78 | 1012.3 |
| 20260502101144 | 9 | 341 | 4.8 | 9.7 | 0.00 | 0.00 | 0.00 | 78 | 1012.3 |
| 20260502101044 | 9 | 338 | 4.8 | 9.7 | 0.00 | 0.00 | 0.00 | 78 | 1012.3 |
| 20260502100935 | 9 | 333 | 4.8 | 9.7 | 0.00 | 0.00 | 0.00 | 78 | 1012.3 |
| 20260502100835 | 9 | 355 | 4.8 | 9.7 | 0.00 | 0.00 | 0.00 | 78 | 1012.2 |
| 20260502100735 | 9 | 325 | 6.4 | 14.5 | 0.00 | 0.00 | 0.00 | 78 | 1012.2 |
| 20260502100636 | 9 | 310 | 6.4 | 14.5 | 0.00 | 0.00 | 0.00 | 78 | 1012.3 |
| 20260502100534 | 9 | 327 | 6.4 | 14.5 | 0.00 | 0.00 | 0.00 | 78 | 1012.4 |
| 20260502100433 | 9 | 328 | 6.4 | 14.5 | 0.00 | 0.00 | 0.00 | 78 | 1012.4 |
| 20260502100330 | 9 | 313 | 8.0 | 14.5 | 0.00 | 0.00 | 0.00 | 77 | 1012.5 |
| 20260502100230 | 9 | 300 | 8.0 | 14.5 | 0.00 | 0.00 | 0.00 | 78 | 1012.5 |
| 20260502100130 | 9 | 328 | 8.0 | 14.5 | 0.00 | 0.00 | 0.00 | 77 | 1012.5 |
| 20260502091522 | 9 | 318 | 8.0 | 12.9 | 0.00 | 0.00 | 0.00 | 78 | 1012.9 |
| 20260502091422 | 9 | 328 | 8.0 | 12.9 | 0.00 | 0.00 | 0.00 | 78 | 1012.9 |
| 20260502091322 | 9 | 325 | 6.4 | 12.9 | 0.00 | 0.00 | 0.00 | 79 | 1012.9 |
| 20260502091218 | 9 | 293 | 6.4 | 12.9 | 0.00 | 0.00 | 0.00 | 79 | 1012.9 |
| 20260502091117 | 9 | 299 | 6.4 | 12.9 | 0.00 | 0.00 | 0.00 | 79 | 1012.9 |
| 20260502091018 | 9 | 299 | 6.4 | 11.3 | 0.00 | 0.00 | 0.00 | 79 | 1013.0 |
| 20260502090915 | 9 | 318 | 6.4 | 11.3 | 0.00 | 0.00 | 0.00 | 79 | 1013.0 |
| 20260502090804 | 9 | 317 | 6.4 | 11.3 | 0.00 | 0.00 | 0.00 | 79 | 1013.0 |
| 20260502090706 | 10 | 328 | 6.4 | 11.3 | 0.00 | 0.00 | 0.00 | 79 | 1012.9 |
| 20260502090606 | 10 | 338 | 6.4 | 11.3 | 0.00 | 0.00 | 0.00 | 79 | 1012.9 |
| 20260502090505 | 10 | 312 | 6.4 | 12.9 | 0.00 | 0.00 | 0.00 | 79 | 1012.9 |
| 20260502090405 | 10 | 321 | 6.4 | 14.5 | 0.00 | 0.00 | 0.00 | 79 | 1012.8 |
| 20260502090302 | 10 | 309 | 6.4 | 14.5 | 0.00 | 0.00 | 0.00 | 79 | 1012.8 |
| 20260502090200 | 10 | 331 | 6.4 | 14.5 | 0.00 | 0.00 | 0.00 | 79 | 1012.6 |
| 20260502071525 | 10 | 337 | 4.8 | 12.9 | 0.00 | 0.00 | 0.00 | 80 | 1012.2 |
| 20260502071424 | 10 | 332 | 4.8 | 12.9 | 0.00 | 0.00 | 0.00 | 80 | 1012.1 |
| 20260502071325 | 10 | 311 | 4.8 | 12.9 | 0.00 | 0.00 | 0.00 | 80 | 1012.1 |
| 20260502071226 | 10 | 327 | 4.8 | 12.9 | 0.00 | 0.00 | 0.00 | 80 | 1012.1 |
| 20260502071125 | 10 | 341 | 4.8 | 12.9 | 0.00 | 0.00 | 0.00 | 80 | 1012.0 |
| 20260502071021 | 10 | 323 | 3.2 | 8.0 | 0.00 | 0.00 | 0.00 | 80 | 1012.0 |
| 20260502070919 | 10 | 348 | 3.2 | 8.0 | 0.00 | 0.00 | 0.00 | 80 | 1012.0 |
| 20260502070818 | 10 | 333 | 3.2 | 8.0 | 0.00 | 0.00 | 0.00 | 80 | 1011.8 |
| 20260502070720 | 10 | 329 | 3.2 | 8.0 | 0.00 | 0.00 | 0.00 | 80 | 1012.0 |
| 20260502070619 | 10 | 326 | 3.2 | 8.0 | 0.00 | 0.00 | 0.00 | 80 | 1011.8 |
| 20260502070509 | 10 | 327 | 3.2 | 8.0 | 0.00 | 0.00 | 0.00 | 80 | 1011.8 |
| 20260502070408 | 10 | 323 | 3.2 | 8.0 | 0.00 | 0.00 | 0.00 | 80 | 1011.8 |
| 20260502070310 | 10 | 344 | 3.2 | 8.0 | 0.00 | 0.00 | 0.00 | 80 | 1011.7 |
| 20260502070210 | 10 | 346 | 3.2 | 8.0 | 0.00 | 0.00 | 0.00 | 80 | 1011.8 |
| 20260502070110 | 10 | 346 | 3.2 | 8.0 | 0.00 | 0.00 | 0.00 | 80 | 1012.0 |
| 20260502070002 | 10 | 11 | 3.2 | 6.4 | 0.00 | 0.00 | 0.00 | 80 | 1012.0 |
| 20260502065903 | 10 | 13 | 3.2 | 6.4 | 0.00 | 0.00 | 0.00 | 81 | 1012.0 |
| 20260502065803 | 10 | 12 | 3.2 | 4.8 | 0.00 | 0.00 | 0.00 | 81 | 1011.8 |
| 20260502065704 | 10 | 12 | 3.2 | 4.8 | 0.00 | 0.00 | 0.00 | 80 | 1011.8 |
| 20260502065604 | 10 | 14 | 3.2 | 4.8 | 0.00 | 0.00 | 0.00 | 80 | 1011.8 |
| 20260502065503 | 10 | 14 | 3.2 | 4.8 | 0.00 | 0.00 | 0.00 | 80 | 1011.8 |
| 20260502065402 | 10 | 14 | 3.2 | 4.8 | 0.00 | 0.00 | 0.00 | 80 | 1011.8 |
| 20260502065306 | 10 | 5 | 3.2 | 4.8 | 0.00 | 0.00 | 0.00 | 80 | 1011.8 |
| 20260502065203 | 10 | 5 | 3.2 | 4.8 | 0.00 | 0.00 | 0.00 | 81 | 1012.0 |
| 20260502065103 | 10 | 15 | 1.6 | 4.8 | 0.00 | 0.00 | 0.00 | 80 | 1012.0 |
| 20260502065004 | 10 | 15 | 1.6 | 4.8 | 0.00 | 0.00 | 0.00 | 80 | 1012.0 |
| 20260502064903 | 10 | 15 | 1.6 | 4.8 | 0.00 | 0.00 | 0.00 | 81 | 1012.0 |
| 20260502064802 | 10 | 15 | 1.6 | 4.8 | 0.00 | 0.00 | 0.00 | 81 | 1012.0 |
| 20260502064702 | 10 | 14 | 1.6 | 4.8 | 0.00 | 0.00 | 0.00 | 81 | 1012.0 |
| 20260502064602 | 10 | 14 | 1.6 | 4.8 | 0.00 | 0.00 | 0.00 | 81 | 1012.1 |
| 20260502064503 | 10 | 14 | 1.6 | 4.8 | 0.00 | 0.00 | 0.00 | 81 | 1012.1 |
| 20260502064404 | 10 | 14 | 1.6 | 4.8 | 0.00 | 0.00 | 0.00 | 81 | 1012.1 |
| 20260502064300 | 10 | 14 | 1.6 | 6.4 | 0.00 | 0.00 | 0.00 | 81 | 1012.2 |
| 20260502064156 | 10 | 14 | 3.2 | 6.4 | 0.00 | 0.00 | 0.00 | 81 | 1012.2 |
| 20260502064056 | 10 | 14 | 3.2 | 6.4 | 0.00 | 0.00 | 0.00 | 81 | 1012.2 |
| 20260502063957 | 10 | 14 | 3.2 | 6.4 | 0.00 | 0.00 | 0.00 | 81 | 1012.2 |
| 20260502063857 | 10 | 14 | 3.2 | 6.4 | 0.00 | 0.00 | 0.00 | 81 | 1012.2 |
| 20260502063754 | 10 | 5 | 3.2 | 6.4 | 0.00 | 0.00 | 0.00 | 81 | 1012.1 |
| 20260502063650 | 10 | 38 | 3.2 | 6.4 | 0.00 | 0.00 | 0.00 | 81 | 1012.2 |
| 20260502063551 | 10 | 38 | 1.6 | 6.4 | 0.00 | 0.00 | 0.00 | 81 | 1012.2 |
| 20260502063450 | 10 | 38 | 1.6 | 6.4 | 0.00 | 0.00 | 0.00 | 81 | 1012.2 |
| 20260502063348 | 10 | 38 | 1.6 | 6.4 | 0.00 | 0.00 | 0.00 | 81 | 1012.3 |
| 20260502063249 | 10 | 11 | 1.6 | 4.8 | 0.00 | 0.00 | 0.00 | 81 | 1012.2 |
| 20260502063149 | 10 | 5 | 1.6 | 4.8 | 0.00 | 0.00 | 0.00 | 81 | 1012.2 |
| 20260502063048 | 10 | 5 | 1.6 | 4.8 | 0.00 | 0.00 | 0.00 | 81 | 1012.3 |
| 20260502062946 | 10 | 5 | 1.6 | 8.0 | 0.00 | 0.00 | 0.00 | 81 | 1012.4 |
| 20260502062848 | 10 | 5 | 1.6 | 8.0 | 0.00 | 0.00 | 0.00 | 81 | 1012.4 |
| 20260502062746 | 10 | 5 | 1.6 | 8.0 | 0.00 | 0.00 | 0.00 | 81 | 1012.4 |
| 20260502062646 | 10 | 9 | 3.2 | 8.0 | 0.00 | 0.00 | 0.00 | 80 | 1012.4 |
| 20260502062548 | 11 | 10 | 3.2 | 8.0 | 0.00 | 0.00 | 0.00 | 80 | 1012.4 |
| 20260502062446 | 11 | 10 | 3.2 | 8.0 | 0.00 | 0.00 | 0.00 | 80 | 1012.4 |
| 20260502062342 | 11 | 0 | 4.8 | 8.0 | 0.00 | 0.00 | 0.00 | 80 | 1012.5 |
| 20260502062243 | 11 | 0 | 4.8 | 12.9 | 0.00 | 0.00 | 0.00 | 80 | 1012.4 |
| 20260502062143 | 11 | 10 | 4.8 | 12.9 | 0.00 | 0.00 | 0.00 | 80 | 1012.4 |
| 20260502062043 | 11 | 5 | 6.4 | 12.9 | 0.00 | 0.00 | 0.00 | 80 | 1012.5 |
| 20260502061942 | 11 | 0 | 6.4 | 19.3 | 0.00 | 0.00 | 0.00 | 80 | 1012.5 |
| 20260502061841 | 11 | 5 | 6.4 | 19.3 | 0.00 | 0.00 | 0.00 | 80 | 1012.5 |
| 20260502061741 | 11 | 18 | 8.0 | 19.3 | 0.00 | 0.00 | 0.00 | 80 | 1012.6 |
| 20260502061641 | 11 | 5 | 8.0 | 19.3 | 0.00 | 0.00 | 0.00 | 80 | 1012.5 |
| 20260502061540 | 11 | 5 | 8.0 | 19.3 | 0.00 | 0.00 | 0.00 | 80 | 1012.6 |
| 20260502061439 | 11 | 355 | 8.0 | 19.3 | 0.00 | 0.00 | 0.00 | 80 | 1012.5 |
| 20260502061339 | 11 | 329 | 9.7 | 19.3 | 0.00 | 0.00 | 0.00 | 80 | 1012.6 |
| 20260502061239 | 11 | 318 | 9.7 | 19.3 | 0.00 | 0.00 | 0.00 | 80 | 1012.6 |
| 20260502061139 | 11 | 334 | 9.7 | 19.3 | 0.00 | 0.00 | 0.00 | 80 | 1012.6 |
| 20260502061038 | 11 | 333 | 9.7 | 19.3 | 0.00 | 0.00 | 0.00 | 80 | 1012.6 |
| 20260502060940 | 11 | 317 | 9.7 | 16.1 | 0.00 | 0.00 | 0.00 | 80 | 1012.6 |
| 20260502060838 | 11 | 329 | 9.7 | 16.1 | 0.00 | 0.00 | 0.00 | 80 | 1012.6 |
| 20260502060739 | 11 | 338 | 9.7 | 16.1 | 0.00 | 0.00 | 0.00 | 80 | 1012.6 |
| 20260502060638 | 11 | 318 | 9.7 | 16.1 | 0.00 | 0.00 | 0.00 | 80 | 1012.5 |
| 20260502060538 | 11 | 325 | 9.7 | 16.1 | 0.00 | 0.00 | 0.00 | 80 | 1012.5 |
| 20260502060439 | 11 | 346 | 9.7 | 16.1 | 0.00 | 0.00 | 0.00 | 80 | 1012.5 |
| 20260502060334 | 11 | 317 | 9.7 | 16.1 | 0.00 | 0.00 | 0.00 | 80 | 1012.5 |
| 20260502060234 | 11 | 321 | 9.7 | 16.1 | 0.00 | 0.00 | 0.00 | 80 | 1012.5 |
| 20260502060134 | 11 | 288 | 9.7 | 16.1 | 0.00 | 0.00 | 0.00 | 80 | 1012.6 |
| 20260502060034 | 11 | 327 | 9.7 | 16.1 | 0.00 | 0.00 | 0.00 | 80 | 1012.6 |
| 20260502055935 | 11 | 299 | 8.0 | 16.1 | 0.00 | 0.00 | 0.00 | 81 | 1012.6 |
| 20260502055834 | 11 | 313 | 8.0 | 16.1 | 0.00 | 0.00 | 0.00 | 81 | 1012.6 |
| 20260502055735 | 11 | 300 | 8.0 | 16.1 | 0.00 | 0.00 | 0.00 | 81 | 1012.6 |
| 20260502055634 | 11 | 321 | 9.7 | 16.1 | 0.00 | 0.00 | 0.00 | 80 | 1012.5 |
| 20260502055536 | 11 | 325 | 9.7 | 16.1 | 0.00 | 0.00 | 0.00 | 80 | 1012.6 |
| 20260502055432 | 11 | 313 | 9.7 | 16.1 | 0.00 | 0.00 | 0.00 | 80 | 1012.6 |
| 20260502055333 | 11 | 315 | 9.7 | 16.1 | 0.00 | 0.00 | 0.00 | 80 | 1012.7 |
| 20260502055232 | 11 | 322 | 9.7 | 16.1 | 0.00 | 0.00 | 0.00 | 80 | 1012.8 |
| 20260502055132 | 11 | 305 | 9.7 | 16.1 | 0.00 | 0.00 | 0.00 | 80 | 1012.7 |
| 20260502055032 | 11 | 321 | 8.0 | 16.1 | 0.00 | 0.00 | 0.00 | 80 | 1012.7 |
| 20260502054934 | 11 | 306 | 8.0 | 16.1 | 0.00 | 0.00 | 0.00 | 80 | 1012.8 |
| 20260502054834 | 11 | 322 | 8.0 | 16.1 | 0.00 | 0.00 | 0.00 | 80 | 1012.8 |
| 20260502054731 | 11 | 286 | 8.0 | 16.1 | 0.00 | 0.00 | 0.00 | 80 | 1012.8 |
| 20260502054626 | 11 | 308 | 6.4 | 16.1 | 0.00 | 0.00 | 0.00 | 80 | 1012.8 |
| 20260502054528 | 11 | 314 | 6.4 | 16.1 | 0.00 | 0.00 | 0.00 | 81 | 1012.7 |
| 20260502054324 | 11 | 323 | 4.8 | 16.1 | 0.00 | 0.00 | 0.00 | 82 | 1012.8 |
| 20260502054225 | 11 | 313 | 4.8 | 16.1 | 0.00 | 0.00 | 0.00 | 82 | 1012.8 |
| 20260502054124 | 11 | 307 | 3.2 | 9.7 | 0.00 | 0.00 | 0.00 | 83 | 1012.8 |
| 20260502054025 | 11 | 313 | 3.2 | 9.7 | 0.00 | 0.00 | 0.00 | 83 | 1012.8 |
| 20260502053925 | 11 | 313 | 3.2 | 9.7 | 0.00 | 0.00 | 0.00 | 84 | 1012.8 |
| 20260502053825 | 11 | 275 | 3.2 | 9.7 | 0.00 | 0.00 | 0.00 | 84 | 1012.8 |
| 20260502053724 | 11 | 266 | 1.6 | 9.7 | 0.00 | 0.00 | 0.00 | 84 | 1012.8 |
| 20260502053624 | 11 | 279 | 1.6 | 4.8 | 0.00 | 0.00 | 0.00 | 84 | 1012.6 |
| 20260502053525 | 11 | 274 | 1.6 | 4.8 | 0.00 | 0.00 | 0.00 | 84 | 1012.7 |
| 20260502053420 | 11 | 274 | 1.6 | 4.8 | 0.00 | 0.00 | 0.00 | 84 | 1012.6 |
| 20260502053321 | 11 | 274 | 1.6 | 4.8 | 0.00 | 0.00 | 0.00 | 84 | 1012.6 |
| 20260502053221 | 11 | 277 | 1.6 | 3.2 | 0.00 | 0.00 | 0.00 | 84 | 1012.6 |
| 20260502053121 | 11 | 277 | 1.6 | 3.2 | 0.00 | 0.00 | 0.00 | 84 | 1012.6 |
| 20260502053021 | 11 | 277 | 1.6 | 3.2 | 0.00 | 0.00 | 0.00 | 84 | 1012.6 |
| 20260502052921 | 11 | 277 | 1.6 | 3.2 | 0.00 | 0.00 | 0.00 | 84 | 1012.7 |
| 20260502052819 | 11 | 277 | 0.0 | 3.2 | 0.00 | 0.00 | 0.00 | 83 | 1012.7 |
| 20260502052719 | 11 | 277 | 0.0 | 14.5 | 0.00 | 0.00 | 0.00 | 83 | 1012.7 |
| 20260502052618 | 11 | 277 | 1.6 | 14.5 | 0.00 | 0.00 | 0.00 | 83 | 1012.8 |
| 20260502052519 | 11 | 277 | 1.6 | 14.5 | 0.00 | 0.00 | 0.00 | 83 | 1012.8 |
| 20260502052419 | 11 | 278 | 1.6 | 14.5 | 0.00 | 0.00 | 0.00 | 83 | 1012.8 |
| 20260502052318 | 11 | 278 | 1.6 | 14.5 | 0.00 | 0.00 | 0.00 | 83 | 1012.8 |
| 20260502052218 | 11 | 278 | 3.2 | 14.5 | 0.00 | 0.00 | 0.00 | 83 | 1012.8 |
| 20260502052120 | 11 | 278 | 3.2 | 14.5 | 0.00 | 0.00 | 0.00 | 83 | 1012.8 |
| 20260502052018 | 11 | 278 | 4.8 | 14.5 | 0.00 | 0.00 | 0.00 | 83 | 1012.7 |
| 20260502051920 | 11 | 284 | 4.8 | 14.5 | 0.00 | 0.00 | 0.00 | 83 | 1012.8 |
| 20260502051818 | 11 | 284 | 6.4 | 14.5 | 0.00 | 0.00 | 0.00 | 83 | 1012.7 |
| 20260502051720 | 11 | 288 | 6.4 | 14.5 | 0.00 | 0.00 | 0.00 | 83 | 1012.8 |
| 20260502051619 | 11 | 291 | 8.0 | 14.5 | 0.00 | 0.00 | 0.00 | 83 | 1012.7 |
| 20260502051519 | 11 | 324 | 8.0 | 14.5 | 0.00 | 0.00 | 0.00 | 83 | 1012.7 |
| 20260502051419 | 11 | 298 | 8.0 | 14.5 | 0.00 | 0.00 | 0.00 | 83 | 1012.7 |
| 20260502051319 | 11 | 319 | 8.0 | 14.5 | 0.00 | 0.00 | 0.00 | 83 | 1012.7 |
| 20260502051218 | 11 | 332 | 8.0 | 14.5 | 0.00 | 0.00 | 0.00 | 83 | 1012.7 |
| 20260502051118 | 11 | 330 | 8.0 | 14.5 | 0.00 | 0.00 | 0.00 | 83 | 1012.6 |
| 20260502051020 | 11 | 302 | 8.0 | 14.5 | 0.00 | 0.00 | 0.00 | 83 | 1012.5 |
| 20260502050920 | 11 | 309 | 8.0 | 14.5 | 0.00 | 0.00 | 0.00 | 82 | 1012.6 |
| 20260502050818 | 11 | 317 | 8.0 | 14.5 | 0.00 | 0.00 | 0.00 | 82 | 1012.6 |
| 20260502050719 | 11 | 276 | 8.0 | 14.5 | 0.00 | 0.00 | 0.00 | 82 | 1012.6 |
| 20260502050619 | 11 | 302 | 8.0 | 14.5 | 0.00 | 0.00 | 0.00 | 82 | 1012.6 |
| 20260502050519 | 11 | 319 | 8.0 | 14.5 | 0.00 | 0.00 | 0.00 | 82 | 1012.6 |
| 20260502050418 | 11 | 308 | 8.0 | 14.5 | 0.00 | 0.00 | 0.00 | 82 | 1012.6 |
| 20260502050319 | 11 | 320 | 6.4 | 14.5 | 0.00 | 0.00 | 0.00 | 82 | 1012.6 |
| 20260502050219 | 11 | 314 | 6.4 | 14.5 | 0.00 | 0.00 | 0.00 | 82 | 1012.6 |
| 20260502050116 | 11 | 285 | 4.8 | 14.5 | 0.00 | 0.00 | 0.00 | 82 | 1012.6 |
| 20260502050016 | 11 | 318 | 4.8 | 14.5 | 0.00 | 0.00 | 0.00 | 82 | 1012.6 |
| 20260502045915 | 11 | 331 | 3.2 | 14.5 | 0.00 | 0.00 | 0.00 | 82 | 1012.6 |
| 20260502045814 | 11 | 317 | 3.2 | 12.9 | 0.00 | 0.00 | 0.00 | 81 | 1012.5 |
| 20260502045715 | 11 | 333 | 1.6 | 12.9 | 0.00 | 0.00 | 0.00 | 81 | 1012.6 |
| 20260502045614 | 11 | 350 | 0.0 | 12.9 | 0.00 | 0.00 | 0.00 | 81 | 1012.5 |
| 20260502045515 | 11 | 323 | 0.0 | 4.8 | 0.00 | 0.00 | 0.00 | 81 | 1012.6 |
| 20260502045415 | 11 | 177 | 0.0 | 4.8 | 0.00 | 0.00 | 0.00 | 81 | 1012.5 |
| 20260502045316 | 11 | 177 | 0.0 | 4.8 | 0.00 | 0.00 | 0.00 | 81 | 1012.5 |
| 20260502045216 | 11 | 177 | 0.0 | 4.8 | 0.00 | 0.00 | 0.00 | 81 | 1012.4 |
| 20260502045116 | 11 | 177 | 1.6 | 4.8 | 0.00 | 0.00 | 0.00 | 81 | 1012.4 |
| 20260502045014 | 11 | 177 | 1.6 | 4.8 | 0.00 | 0.00 | 0.00 | 81 | 1012.4 |
| 20260502044916 | 11 | 177 | 1.6 | 4.8 | 0.00 | 0.00 | 0.00 | 81 | 1012.4 |
| 20260502044814 | 11 | 177 | 1.6 | 4.8 | 0.00 | 0.00 | 0.00 | 81 | 1012.3 |
| 20260502044716 | 11 | 177 | 1.6 | 4.8 | 0.00 | 0.00 | 0.00 | 81 | 1012.4 |
| 20260502044614 | 11 | 177 | 1.6 | 4.8 | 0.00 | 0.00 | 0.00 | 81 | 1012.5 |
| 20260502044515 | 11 | 177 | 1.6 | 4.8 | 0.00 | 0.00 | 0.00 | 81 | 1012.4 |
| 20260502044414 | 11 | 177 | 1.6 | 4.8 | 0.00 | 0.00 | 0.00 | 81 | 1012.4 |
| 20260502044314 | 11 | 176 | 1.6 | 4.8 | 0.00 | 0.00 | 0.00 | 82 | 1012.4 |
| 20260502044214 | 11 | 176 | 1.6 | 4.8 | 0.00 | 0.00 | 0.00 | 81 | 1012.4 |
| 20260502044114 | 11 | 176 | 1.6 | 4.8 | 0.00 | 0.00 | 0.00 | 81 | 1012.4 |
| 20260502044014 | 11 | 176 | 1.6 | 4.8 | 0.00 | 0.00 | 0.00 | 81 | 1012.4 |
| 20260502043914 | 11 | 176 | 1.6 | 4.8 | 0.00 | 0.00 | 0.00 | 81 | 1012.4 |
| 20260502043814 | 11 | 176 | 1.6 | 4.8 | 0.00 | 0.00 | 0.00 | 81 | 1012.4 |
| 20260502043714 | 11 | 176 | 1.6 | 4.8 | 0.00 | 0.00 | 0.00 | 81 | 1012.4 |
| 20260502043616 | 11 | 176 | 1.6 | 4.8 | 0.00 | 0.00 | 0.00 | 82 | 1012.4 |
| 20260502043515 | 11 | 176 | 1.6 | 4.8 | 0.00 | 0.00 | 0.00 | 82 | 1012.4 |
| 20260502043415 | 11 | 176 | 1.6 | 4.8 | 0.00 | 0.00 | 0.00 | 81 | 1012.4 |
| 20260502043316 | 11 | 176 | 1.6 | 4.8 | 0.00 | 0.00 | 0.00 | 81 | 1012.5 |
| 20260502043215 | 11 | 176 | 1.6 | 4.8 | 0.00 | 0.00 | 0.00 | 81 | 1012.5 |
| 20260502043014 | 11 | 173 | 1.6 | 4.8 | 0.00 | 0.00 | 0.00 | 81 | 1012.5 |
| 20260502042916 | 11 | 173 | 1.6 | 4.8 | 0.00 | 0.00 | 0.00 | 81 | 1012.6 |
| 20260502042812 | 11 | 173 | 1.6 | 4.8 | 0.00 | 0.00 | 0.00 | 81 | 1012.6 |
| 20260502042711 | 11 | 173 | 1.6 | 4.8 | 0.00 | 0.00 | 0.00 | 81 | 1012.5 |
| 20260502042612 | 11 | 174 | 1.6 | 4.8 | 0.00 | 0.00 | 0.00 | 81 | 1012.5 |
| 20260502042511 | 11 | 173 | 1.6 | 4.8 | 0.00 | 0.00 | 0.00 | 81 | 1012.5 |
| 20260502042411 | 11 | 173 | 1.6 | 4.8 | 0.00 | 0.00 | 0.00 | 82 | 1012.5 |
| 20260502042310 | 11 | 173 | 1.6 | 4.8 | 0.00 | 0.00 | 0.00 | 82 | 1012.5 |
| 20260502042212 | 11 | 173 | 1.6 | 4.8 | 0.00 | 0.00 | 0.00 | 82 | 1012.5 |
| 20260502042110 | 11 | 173 | 1.6 | 4.8 | 0.00 | 0.00 | 0.00 | 81 | 1012.4 |
| 20260502042011 | 11 | 173 | 1.6 | 4.8 | 0.00 | 0.00 | 0.00 | 82 | 1012.4 |
| 20260502041910 | 11 | 173 | 1.6 | 3.2 | 0.00 | 0.00 | 0.00 | 82 | 1012.5 |
| 20260502041810 | 11 | 173 | 1.6 | 3.2 | 0.00 | 0.00 | 0.00 | 82 | 1012.4 |
| 20260502041711 | 11 | 173 | 1.6 | 3.2 | 0.00 | 0.00 | 0.00 | 82 | 1012.4 |
| 20260502041612 | 11 | 173 | 1.6 | 3.2 | 0.00 | 0.00 | 0.00 | 82 | 1012.5 |
| 20260502041510 | 11 | 173 | 1.6 | 4.8 | 0.00 | 0.00 | 0.00 | 82 | 1012.4 |
| 20260502041412 | 11 | 173 | 1.6 | 4.8 | 0.00 | 0.00 | 0.00 | 82 | 1012.5 |
| 20260502041312 | 11 | 173 | 1.6 | 4.8 | 0.00 | 0.00 | 0.00 | 82 | 1012.6 |
| 20260502041210 | 11 | 173 | 1.6 | 4.8 | 0.00 | 0.00 | 0.00 | 82 | 1012.4 |
| 20260502041111 | 11 | 173 | 1.6 | 4.8 | 0.00 | 0.00 | 0.00 | 82 | 1012.4 |
| 20260502041010 | 11 | 173 | 1.6 | 4.8 | 0.00 | 0.00 | 0.00 | 82 | 1012.5 |
| 20260502040911 | 11 | 173 | 1.6 | 4.8 | 0.00 | 0.00 | 0.00 | 82 | 1012.5 |
| 20260502040810 | 11 | 173 | 1.6 | 4.8 | 0.00 | 0.00 | 0.00 | 82 | 1012.4 |
| 20260502040710 | 11 | 173 | 1.6 | 4.8 | 0.00 | 0.00 | 0.00 | 82 | 1012.4 |
| 20260502040612 | 11 | 173 | 3.2 | 4.8 | 0.00 | 0.00 | 0.00 | 82 | 1012.4 |
| 20260502040510 | 11 | 173 | 1.6 | 4.8 | 0.00 | 0.00 | 0.00 | 82 | 1012.4 |
| 20260502040413 | 11 | 173 | 1.6 | 4.8 | 0.00 | 0.00 | 0.00 | 82 | 1012.4 |
| 20260502040311 | 11 | 173 | 1.6 | 4.8 | 0.00 | 0.00 | 0.00 | 82 | 1012.4 |
| 20260502040203 | 11 | 173 | 1.6 | 4.8 | 0.00 | 0.00 | 0.00 | 82 | 1012.4 |
| 20260502040101 | 11 | 173 | 1.6 | 6.4 | 0.00 | 0.00 | 0.00 | 82 | 1012.4 |
| 20260502040000 | 11 | 173 | 1.6 | 6.4 | 0.00 | 0.00 | 0.00 | 82 | 1012.6 |
| 20260502035902 | 11 | 173 | 1.6 | 8.0 | 0.00 | 0.00 | 0.00 | 82 | 1012.6 |
| 20260502035759 | 11 | 173 | 1.6 | 8.0 | 0.00 | 0.00 | 0.00 | 82 | 1012.5 |
| 20260502035654 | 11 | 173 | 1.6 | 8.0 | 0.00 | 0.00 | 0.00 | 82 | 1012.5 |
| 20260502035554 | 11 | 173 | 1.6 | 8.0 | 0.00 | 0.00 | 0.00 | 82 | 1012.6 |
| 20260502035454 | 11 | 173 | 3.2 | 8.0 | 0.00 | 0.00 | 0.00 | 82 | 1012.6 |
| 20260502035354 | 11 | 173 | 3.2 | 8.0 | 0.00 | 0.00 | 0.00 | 82 | 1012.6 |
| 20260502035252 | 11 | 171 | 3.2 | 8.0 | 0.00 | 0.00 | 0.00 | 82 | 1012.6 |
| 20260502035148 | 11 | 171 | 3.2 | 8.0 | 0.00 | 0.00 | 0.00 | 82 | 1012.7 |
| 20260502035045 | 11 | 171 | 3.2 | 8.0 | 0.00 | 0.00 | 0.00 | 82 | 1012.5 |
| 20260502034945 | 11 | 171 | 3.2 | 8.0 | 0.00 | 0.00 | 0.00 | 82 | 1012.5 |
| 20260502034842 | 11 | 178 | 3.2 | 8.0 | 0.00 | 0.00 | 0.00 | 82 | 1012.5 |
| 20260502034743 | 11 | 178 | 3.2 | 8.0 | 0.00 | 0.00 | 0.00 | 82 | 1012.5 |
| 20260502034637 | 11 | 159 | 3.2 | 9.7 | 0.00 | 0.00 | 0.00 | 82 | 1012.6 |
| 20260502034537 | 11 | 159 | 3.2 | 9.7 | 0.00 | 0.00 | 0.00 | 82 | 1012.5 |
| 20260502034436 | 11 | 159 | 3.2 | 9.7 | 0.00 | 0.00 | 0.00 | 82 | 1012.6 |
| 20260502034335 | 11 | 159 | 3.2 | 9.7 | 0.00 | 0.00 | 0.00 | 82 | 1012.5 |
| 20260502034234 | 11 | 159 | 3.2 | 9.7 | 0.00 | 0.00 | 0.00 | 82 | 1012.5 |
| 20260502034129 | 11 | 159 | 3.2 | 9.7 | 0.00 | 0.00 | 0.00 | 82 | 1012.5 |
| 20260502034026 | 11 | 159 | 3.2 | 9.7 | 0.00 | 0.00 | 0.00 | 82 | 1012.5 |
| 20260502033928 | 11 | 159 | 3.2 | 9.7 | 0.00 | 0.00 | 0.00 | 82 | 1012.6 |
| 20260502033825 | 11 | 149 | 3.2 | 9.7 | 0.00 | 0.00 | 0.00 | 82 | 1012.5 |
| 20260502033725 | 11 | 180 | 3.2 | 9.7 | 0.00 | 0.00 | 0.00 | 82 | 1012.5 |
| 20260502033621 | 11 | 178 | 3.2 | 8.0 | 0.00 | 0.00 | 0.00 | 82 | 1012.6 |
| 20260502033518 | 11 | 181 | 3.2 | 9.7 | 0.00 | 0.00 | 0.00 | 82 | 1012.5 |
| 20260502033420 | 11 | 181 | 3.2 | 9.7 | 0.00 | 0.00 | 0.00 | 82 | 1012.5 |
| 20260502033317 | 11 | 181 | 3.2 | 9.7 | 0.00 | 0.00 | 0.00 | 82 | 1012.6 |
| 20260502033217 | 11 | 178 | 3.2 | 9.7 | 0.00 | 0.00 | 0.00 | 82 | 1012.6 |
| 20260502033106 | 11 | 178 | 3.2 | 9.7 | 0.00 | 0.00 | 0.00 | 82 | 1012.7 |
| 20260502033008 | 11 | 178 | 3.2 | 9.7 | 0.00 | 0.00 | 0.00 | 82 | 1012.7 |
| 20260502032907 | 11 | 178 | 4.8 | 9.7 | 0.00 | 0.00 | 0.00 | 82 | 1012.8 |
| 20260502032806 | 11 | 171 | 4.8 | 9.7 | 0.00 | 0.00 | 0.00 | 82 | 1012.7 |
| 20260502032707 | 11 | 171 | 4.8 | 9.7 | 0.00 | 0.00 | 0.00 | 82 | 1012.6 |
| 20260502032600 | 11 | 178 | 4.8 | 9.7 | 0.00 | 0.00 | 0.00 | 82 | 1012.8 |
| 20260502032500 | 11 | 157 | 4.8 | 8.0 | 0.00 | 0.00 | 0.00 | 82 | 1012.8 |
| 20260502032402 | 11 | 157 | 4.8 | 8.0 | 0.00 | 0.00 | 0.00 | 82 | 1012.8 |
| 20260502032300 | 11 | 157 | 4.8 | 8.0 | 0.00 | 0.00 | 0.00 | 82 | 1012.7 |
| 20260502032202 | 11 | 177 | 4.8 | 8.0 | 0.00 | 0.00 | 0.00 | 82 | 1012.8 |
| 20260502032057 | 11 | 178 | 4.8 | 8.0 | 0.00 | 0.00 | 0.00 | 82 | 1012.7 |
| 20260502031957 | 11 | 178 | 4.8 | 9.7 | 0.00 | 0.00 | 0.00 | 82 | 1012.6 |
| 20260502031857 | 11 | 160 | 4.8 | 9.7 | 0.00 | 0.00 | 0.00 | 82 | 1012.7 |
| 20260502031756 | 11 | 165 | 3.2 | 9.7 | 0.00 | 0.00 | 0.00 | 82 | 1012.8 |
| 20260502031657 | 11 | 190 | 4.8 | 9.7 | 0.00 | 0.00 | 0.00 | 82 | 1012.8 |
| 20260502031557 | 11 | 191 | 4.8 | 9.7 | 0.00 | 0.00 | 0.00 | 82 | 1012.8 |
| 20260502031454 | 11 | 224 | 4.8 | 9.7 | 0.00 | 0.00 | 0.00 | 82 | 1012.8 |
| 20260502031355 | 11 | 151 | 3.2 | 9.7 | 0.00 | 0.00 | 0.00 | 82 | 1012.7 |
| 20260502031256 | 11 | 151 | 4.8 | 9.7 | 0.00 | 0.00 | 0.00 | 81 | 1012.8 |
| 20260502031155 | 11 | 151 | 4.8 | 9.7 | 0.00 | 0.00 | 0.00 | 81 | 1012.8 |
| 20260502031054 | 11 | 151 | 4.8 | 9.7 | 0.00 | 0.00 | 0.00 | 81 | 1012.8 |
| 20260502030956 | 11 | 153 | 4.8 | 8.0 | 0.00 | 0.00 | 0.00 | 81 | 1012.8 |
| 20260502030850 | 11 | 155 | 4.8 | 11.3 | 0.00 | 0.00 | 0.00 | 81 | 1012.9 |
| 20260502030750 | 11 | 155 | 4.8 | 11.3 | 0.00 | 0.00 | 0.00 | 81 | 1012.9 |
| 20260502030648 | 11 | 156 | 4.8 | 11.3 | 0.00 | 0.00 | 0.00 | 81 | 1012.9 |
| 20260502030550 | 11 | 134 | 4.8 | 11.3 | 0.00 | 0.00 | 0.00 | 81 | 1013.0 |
| 20260502030448 | 11 | 192 | 4.8 | 11.3 | 0.00 | 0.00 | 0.00 | 81 | 1012.9 |
| 20260502030348 | 11 | 165 | 4.8 | 11.3 | 0.00 | 0.00 | 0.00 | 81 | 1012.9 |
| 20260502030249 | 11 | 165 | 4.8 | 11.3 | 0.00 | 0.00 | 0.00 | 81 | 1013.0 |
| 20260502030149 | 11 | 164 | 4.8 | 11.3 | 0.00 | 0.00 | 0.00 | 81 | 1012.9 |
| 20260502030048 | 11 | 165 | 4.8 | 11.3 | 0.00 | 0.00 | 0.00 | 81 | 1013.0 |
| 20260502025948 | 11 | 165 | 3.2 | 11.3 | 0.00 | 0.00 | 0.00 | 81 | 1013.0 |
| 20260502025849 | 11 | 156 | 3.2 | 9.7 | 0.00 | 0.00 | 0.00 | 81 | 1013.0 |
| 20260502025748 | 12 | 157 | 3.2 | 9.7 | 0.00 | 0.00 | 0.00 | 81 | 1013.0 |
| 20260502025648 | 12 | 171 | 3.2 | 8.0 | 0.00 | 0.00 | 0.00 | 81 | 1013.0 |
| 20260502025548 | 12 | 172 | 3.2 | 8.0 | 0.00 | 0.00 | 0.00 | 81 | 1013.0 |
| 20260502025450 | 12 | 172 | 4.8 | 14.5 | 0.00 | 0.00 | 0.00 | 81 | 1013.0 |
| 20260502025348 | 12 | 172 | 4.8 | 14.5 | 0.00 | 0.00 | 0.00 | 80 | 1013.1 |
| 20260502025249 | 12 | 172 | 4.8 | 14.5 | 0.00 | 0.00 | 0.00 | 80 | 1013.0 |
| 20260502025149 | 12 | 172 | 4.8 | 14.5 | 0.00 | 0.00 | 0.00 | 80 | 1013.0 |
| 20260502025052 | 12 | 172 | 4.8 | 14.5 | 0.00 | 0.00 | 0.00 | 80 | 1013.0 |
| 20260502024944 | 12 | 173 | 4.8 | 14.5 | 0.00 | 0.00 | 0.00 | 80 | 1013.1 |
| 20260502024846 | 12 | 173 | 4.8 | 14.5 | 0.00 | 0.00 | 0.00 | 80 | 1013.1 |
| 20260502024744 | 12 | 175 | 4.8 | 14.5 | 0.00 | 0.00 | 0.00 | 80 | 1013.1 |
| 20260502024649 | 12 | 175 | 4.8 | 14.5 | 0.00 | 0.00 | 0.00 | 80 | 1013.1 |
| 20260502024542 | 12 | 174 | 3.2 | 14.5 | 0.00 | 0.00 | 0.00 | 80 | 1013.1 |
| 20260502024442 | 12 | 187 | 3.2 | 9.7 | 0.00 | 0.00 | 0.00 | 80 | 1013.1 |
| 20260502024343 | 12 | 162 | 3.2 | 9.7 | 0.00 | 0.00 | 0.00 | 80 | 1013.0 |
| 20260502024242 | 12 | 161 | 3.2 | 9.7 | 0.00 | 0.00 | 0.00 | 80 | 1013.1 |
| 20260502024143 | 12 | 164 | 1.6 | 9.7 | 0.00 | 0.00 | 0.00 | 80 | 1013.0 |
| 20260502024043 | 12 | 208 | 1.6 | 9.7 | 0.00 | 0.00 | 0.00 | 80 | 1013.0 |
| 20260502023942 | 12 | 211 | 1.6 | 6.4 | 0.00 | 0.00 | 0.00 | 79 | 1013.0 |
| 20260502023842 | 12 | 206 | 1.6 | 6.4 | 0.00 | 0.00 | 0.00 | 79 | 1013.0 |
| 20260502023743 | 12 | 206 | 1.6 | 6.4 | 0.00 | 0.00 | 0.00 | 79 | 1013.0 |
| 20260502023644 | 12 | 206 | 1.6 | 6.4 | 0.00 | 0.00 | 0.00 | 79 | 1013.0 |
| 20260502023544 | 12 | 206 | 3.2 | 14.5 | 0.00 | 0.00 | 0.00 | 79 | 1013.0 |
| 20260502023442 | 12 | 207 | 3.2 | 14.5 | 0.00 | 0.00 | 0.00 | 79 | 1012.9 |
| 20260502023344 | 12 | 207 | 3.2 | 14.5 | 0.00 | 0.00 | 0.00 | 79 | 1012.9 |
| 20260502023242 | 12 | 227 | 3.2 | 14.5 | 0.00 | 0.00 | 0.00 | 79 | 1012.8 |
| 20260502023143 | 12 | 259 | 4.8 | 14.5 | 0.00 | 0.00 | 0.00 | 79 | 1012.9 |
| 20260502023035 | 12 | 259 | 4.8 | 14.5 | 0.00 | 0.00 | 0.00 | 79 | 1012.9 |
| 20260502022934 | 12 | 238 | 4.8 | 14.5 | 0.00 | 0.00 | 0.00 | 78 | 1012.9 |
| 20260502022834 | 12 | 231 | 4.8 | 14.5 | 0.00 | 0.00 | 0.00 | 78 | 1012.8 |
| 20260502022735 | 12 | 231 | 4.8 | 14.5 | 0.00 | 0.00 | 0.00 | 78 | 1012.8 |
| 20260502022635 | 12 | 234 | 4.8 | 14.5 | 0.00 | 0.00 | 0.00 | 78 | 1012.8 |
| 20260502022536 | 12 | 178 | 4.8 | 14.5 | 0.00 | 0.00 | 0.00 | 78 | 1012.8 |
| 20260502022434 | 12 | 148 | 4.8 | 14.5 | 0.00 | 0.00 | 0.00 | 78 | 1012.7 |
| 20260502022336 | 12 | 190 | 3.2 | 14.5 | 0.00 | 0.00 | 0.00 | 78 | 1012.7 |
| 20260502022234 | 12 | 198 | 3.2 | 12.9 | 0.00 | 0.00 | 0.00 | 78 | 1012.7 |
| 20260502022134 | 12 | 163 | 3.2 | 14.5 | 0.00 | 0.00 | 0.00 | 78 | 1012.8 |
| 20260502022035 | 12 | 214 | 4.8 | 16.1 | 0.00 | 0.00 | 0.00 | 78 | 1012.8 |
| 20260502021935 | 12 | 214 | 4.8 | 16.1 | 0.00 | 0.00 | 0.00 | 78 | 1012.8 |
| 20260502021835 | 12 | 236 | 4.8 | 16.1 | 0.00 | 0.00 | 0.00 | 78 | 1012.8 |
| 20260502021736 | 12 | 154 | 4.8 | 16.1 | 0.00 | 0.00 | 0.00 | 77 | 1012.7 |
| 20260502021634 | 12 | 158 | 6.4 | 16.1 | 0.00 | 0.00 | 0.00 | 77 | 1012.9 |
| 20260502021535 | 12 | 232 | 4.8 | 16.1 | 0.00 | 0.00 | 0.00 | 77 | 1013.0 |
| 20260502021434 | 12 | 178 | 4.8 | 16.1 | 0.00 | 0.00 | 0.00 | 77 | 1012.8 |
| 20260502021334 | 12 | 188 | 6.4 | 16.1 | 0.00 | 0.00 | 0.00 | 77 | 1012.8 |
| 20260502021234 | 12 | 175 | 6.4 | 16.1 | 0.00 | 0.00 | 0.00 | 77 | 1012.8 |
| 20260502021135 | 12 | 149 | 6.4 | 16.1 | 0.00 | 0.00 | 0.00 | 77 | 1012.8 |
| 20260502021035 | 12 | 142 | 6.4 | 14.5 | 0.00 | 0.00 | 0.00 | 77 | 1012.8 |
| 20260502020934 | 12 | 200 | 4.8 | 14.5 | 0.00 | 0.00 | 0.00 | 77 | 1012.7 |
| 20260502020834 | 12 | 166 | 4.8 | 14.5 | 0.00 | 0.00 | 0.00 | 77 | 1012.7 |
| 20260502020734 | 12 | 184 | 4.8 | 14.5 | 0.00 | 0.00 | 0.00 | 77 | 1012.7 |
| 20260502020636 | 12 | 207 | 4.8 | 14.5 | 0.00 | 0.00 | 0.00 | 77 | 1012.8 |
| 20260502020535 | 12 | 150 | 4.8 | 12.9 | 0.00 | 0.00 | 0.00 | 76 | 1012.7 |
| 20260502020436 | 12 | 173 | 3.2 | 12.9 | 0.00 | 0.00 | 0.00 | 76 | 1012.7 |
| 20260502020335 | 12 | 198 | 3.2 | 12.9 | 0.00 | 0.00 | 0.00 | 76 | 1012.7 |
| 20260502020234 | 12 | 179 | 3.2 | 12.9 | 0.00 | 0.00 | 0.00 | 76 | 1012.6 |
| 20260502020134 | 12 | 193 | 3.2 | 12.9 | 0.00 | 0.00 | 0.00 | 76 | 1012.6 |
| 20260502020035 | 12 | 211 | 3.2 | 12.9 | 0.00 | 0.00 | 0.00 | 76 | 1012.7 |
| 20260502015934 | 12 | 186 | 3.2 | 12.9 | 0.00 | 0.00 | 0.00 | 76 | 1012.6 |
| 20260502015835 | 12 | 198 | 3.2 | 12.9 | 0.00 | 0.00 | 0.00 | 76 | 1012.6 |
| 20260502015730 | 12 | 186 | 3.2 | 11.3 | 0.00 | 0.00 | 0.00 | 76 | 1012.7 |
| 20260502015630 | 12 | 186 | 3.2 | 14.5 | 0.00 | 0.00 | 0.00 | 76 | 1012.5 |
| 20260502015532 | 12 | 246 | 3.2 | 14.5 | 0.00 | 0.00 | 0.00 | 75 | 1012.5 |
| 20260502015430 | 12 | 246 | 4.8 | 14.5 | 0.00 | 0.00 | 0.00 | 75 | 1012.6 |
| 20260502015332 | 12 | 238 | 4.8 | 14.5 | 0.00 | 0.00 | 0.00 | 75 | 1012.5 |
| 20260502015230 | 12 | 150 | 4.8 | 14.5 | 0.00 | 0.00 | 0.00 | 75 | 1012.5 |
| 20260502015130 | 12 | 176 | 4.8 | 14.5 | 0.00 | 0.00 | 0.00 | 75 | 1012.5 |
| 20260502015031 | 12 | 203 | 4.8 | 14.5 | 0.00 | 0.00 | 0.00 | 75 | 1012.5 |
| 20260502014930 | 12 | 159 | 4.8 | 14.5 | 0.00 | 0.00 | 0.00 | 75 | 1012.5 |
| 20260502014831 | 12 | 194 | 4.8 | 14.5 | 0.00 | 0.00 | 0.00 | 75 | 1012.4 |
| 20260502014730 | 12 | 173 | 4.8 | 14.5 | 0.00 | 0.00 | 0.00 | 75 | 1012.4 |
| 20260502014631 | 12 | 157 | 4.8 | 14.5 | 0.00 | 0.00 | 0.00 | 75 | 1012.3 |
| 20260502014530 | 12 | 194 | 4.8 | 14.5 | 0.00 | 0.00 | 0.00 | 75 | 1012.3 |
| 20260502014434 | 12 | 163 | 4.8 | 14.5 | 0.00 | 0.00 | 0.00 | 75 | 1012.3 |
| 20260502014331 | 12 | 154 | 4.8 | 14.5 | 0.00 | 0.00 | 0.00 | 75 | 1012.4 |
| 20260502014231 | 12 | 145 | 4.8 | 14.5 | 0.00 | 0.00 | 0.00 | 75 | 1012.3 |
| 20260502014130 | 12 | 158 | 4.8 | 14.5 | 0.00 | 0.00 | 0.00 | 75 | 1012.2 |
| 20260502014031 | 12 | 157 | 4.8 | 16.1 | 0.00 | 0.00 | 0.00 | 75 | 1012.3 |
| 20260502013931 | 12 | 163 | 6.4 | 16.1 | 0.00 | 0.00 | 0.00 | 75 | 1012.2 |
| 20260502013830 | 12 | 163 | 6.4 | 16.1 | 0.00 | 0.00 | 0.00 | 75 | 1012.2 |
| 20260502013731 | 12 | 184 | 6.4 | 16.1 | 0.00 | 0.00 | 0.00 | 75 | 1012.2 |
| 20260502013631 | 12 | 175 | 6.4 | 16.1 | 0.00 | 0.00 | 0.00 | 75 | 1012.2 |
| 20260502013533 | 12 | 176 | 6.4 | 16.1 | 0.00 | 0.00 | 0.00 | 75 | 1012.2 |
| 20260502013430 | 12 | 163 | 6.4 | 16.1 | 0.00 | 0.00 | 0.00 | 75 | 1012.2 |
| 20260502013332 | 12 | 161 | 6.4 | 16.1 | 0.00 | 0.00 | 0.00 | 75 | 1012.3 |
| 20260502013231 | 12 | 168 | 6.4 | 16.1 | 0.00 | 0.00 | 0.00 | 75 | 1012.2 |
| 20260502013132 | 12 | 173 | 6.4 | 16.1 | 0.00 | 0.00 | 0.00 | 74 | 1012.2 |
| 20260502013031 | 12 | 202 | 4.8 | 16.1 | 0.00 | 0.00 | 0.00 | 75 | 1012.2 |
| 20260502012931 | 12 | 161 | 4.8 | 14.5 | 0.00 | 0.00 | 0.00 | 75 | 1012.1 |
| 20260502012830 | 12 | 186 | 4.8 | 14.5 | 0.00 | 0.00 | 0.00 | 75 | 1012.2 |
| 20260502012730 | 12 | 171 | 4.8 | 12.9 | 0.00 | 0.00 | 0.00 | 75 | 1012.2 |
| 20260502012630 | 12 | 174 | 3.2 | 12.9 | 0.00 | 0.00 | 0.00 | 75 | 1012.2 |
| 20260502012533 | 12 | 168 | 3.2 | 12.9 | 0.00 | 0.00 | 0.00 | 74 | 1012.3 |
| 20260502012427 | 12 | 175 | 3.2 | 9.7 | 0.00 | 0.00 | 0.00 | 75 | 1012.2 |
| 20260502012327 | 12 | 161 | 3.2 | 11.3 | 0.00 | 0.00 | 0.00 | 74 | 1012.2 |
| 20260502012228 | 12 | 162 | 3.2 | 11.3 | 0.00 | 0.00 | 0.00 | 75 | 1012.2 |
| 20260502012126 | 12 | 162 | 3.2 | 11.3 | 0.00 | 0.00 | 0.00 | 74 | 1012.2 |
| 20260502012026 | 12 | 162 | 3.2 | 11.3 | 0.00 | 0.00 | 0.00 | 74 | 1012.2 |
| 20260502011928 | 12 | 246 | 3.2 | 11.3 | 0.00 | 0.00 | 0.00 | 74 | 1012.3 |
| 20260502011826 | 12 | 166 | 3.2 | 11.3 | 0.00 | 0.00 | 0.00 | 74 | 1012.3 |
| 20260502011727 | 12 | 192 | 3.2 | 11.3 | 0.00 | 0.00 | 0.00 | 74 | 1012.3 |
| 20260502011628 | 12 | 192 | 3.2 | 11.3 | 0.00 | 0.00 | 0.00 | 74 | 1012.3 |
| 20260502011527 | 12 | 192 | 3.2 | 11.3 | 0.00 | 0.00 | 0.00 | 74 | 1012.3 |
| 20260502011426 | 12 | 171 | 3.2 | 11.3 | 0.00 | 0.00 | 0.00 | 74 | 1012.4 |
| 20260502011326 | 12 | 173 | 3.2 | 11.3 | 0.00 | 0.00 | 0.00 | 74 | 1012.3 |
| 20260502011226 | 12 | 174 | 3.2 | 14.5 | 0.00 | 0.00 | 0.00 | 74 | 1012.3 |
| 20260502011127 | 12 | 174 | 3.2 | 14.5 | 0.00 | 0.00 | 0.00 | 74 | 1012.3 |
| 20260502011027 | 12 | 174 | 4.8 | 14.5 | 0.00 | 0.00 | 0.00 | 74 | 1012.3 |
| 20260502010926 | 12 | 196 | 4.8 | 14.5 | 0.00 | 0.00 | 0.00 | 74 | 1012.3 |
| 20260502010827 | 12 | 196 | 4.8 | 14.5 | 0.00 | 0.00 | 0.00 | 74 | 1012.2 |
| 20260502010727 | 12 | 196 | 4.8 | 14.5 | 0.00 | 0.00 | 0.00 | 74 | 1012.3 |
| 20260502010626 | 12 | 205 | 4.8 | 14.5 | 0.00 | 0.00 | 0.00 | 74 | 1012.2 |
| 20260502010526 | 12 | 180 | 4.8 | 14.5 | 0.00 | 0.00 | 0.00 | 74 | 1012.3 |
| 20260502010426 | 12 | 179 | 4.8 | 14.5 | 0.00 | 0.00 | 0.00 | 74 | 1012.2 |
| 20260502010327 | 12 | 177 | 4.8 | 14.5 | 0.00 | 0.00 | 0.00 | 74 | 1012.2 |
| 20260502010226 | 12 | 182 | 4.8 | 11.3 | 0.00 | 0.00 | 0.00 | 74 | 1012.2 |
| 20260502010127 | 12 | 177 | 4.8 | 11.3 | 0.00 | 0.00 | 0.00 | 74 | 1012.3 |
| 20260502010026 | 12 | 178 | 4.8 | 11.3 | 0.00 | 0.00 | 0.00 | 74 | 1012.3 |
| 20260502005927 | 12 | 139 | 4.8 | 11.3 | 0.00 | 0.00 | 0.00 | 74 | 1012.2 |
| 20260502005826 | 12 | 153 | 4.8 | 11.3 | 0.00 | 0.00 | 0.00 | 74 | 1012.3 |
| 20260502005727 | 12 | 205 | 4.8 | 11.3 | 0.00 | 0.00 | 0.00 | 74 | 1012.3 |
| 20260502005627 | 12 | 177 | 4.8 | 11.3 | 0.00 | 0.00 | 0.00 | 74 | 1012.3 |
| 20260502005526 | 12 | 162 | 4.8 | 11.3 | 0.00 | 0.00 | 0.00 | 74 | 1012.3 |
| 20260502005428 | 12 | 170 | 4.8 | 11.3 | 0.00 | 0.00 | 0.00 | 74 | 1012.2 |
| 20260502005326 | 12 | 188 | 4.8 | 11.3 | 0.00 | 0.00 | 0.00 | 73 | 1012.2 |
| 20260502005228 | 12 | 153 | 3.2 | 11.3 | 0.00 | 0.00 | 0.00 | 74 | 1012.1 |
| 20260502005122 | 12 | 175 | 4.8 | 11.3 | 0.00 | 0.00 | 0.00 | 73 | 1012.2 |
| 20260502005020 | 12 | 157 | 4.8 | 14.5 | 0.00 | 0.00 | 0.00 | 73 | 1012.1 |
| 20260502004918 | 12 | 156 | 4.8 | 14.5 | 0.00 | 0.00 | 0.00 | 73 | 1012.1 |
| 20260502004818 | 12 | 172 | 4.8 | 14.5 | 0.00 | 0.00 | 0.00 | 73 | 1012.1 |
| 20260502004718 | 12 | 173 | 4.8 | 14.5 | 0.00 | 0.00 | 0.00 | 73 | 1012.0 |
| 20260502004616 | 12 | 180 | 3.2 | 14.5 | 0.00 | 0.00 | 0.00 | 73 | 1012.0 |
| 20260502004516 | 12 | 191 | 3.2 | 14.5 | 0.00 | 0.00 | 0.00 | 73 | 1012.1 |
| 20260502004414 | 12 | 191 | 3.2 | 14.5 | 0.00 | 0.00 | 0.00 | 73 | 1012.1 |
| 20260502004314 | 12 | 186 | 3.2 | 14.5 | 0.00 | 0.00 | 0.00 | 73 | 1012.0 |
| 20260502004209 | 12 | 194 | 3.2 | 14.5 | 0.00 | 0.00 | 0.00 | 73 | 1012.1 |
| 20260502004059 | 12 | 178 | 3.2 | 11.3 | 0.00 | 0.00 | 0.00 | 73 | 1012.0 |
| 20260502003958 | 13 | 184 | 1.6 | 11.3 | 0.00 | 0.00 | 0.00 | 73 | 1012.0 |
| 20260502003900 | 13 | 183 | 1.6 | 11.3 | 0.00 | 0.00 | 0.00 | 72 | 1012.0 |
| 20260502003758 | 13 | 184 | 1.6 | 11.3 | 0.00 | 0.00 | 0.00 | 73 | 1012.0 |
| 20260502003658 | 13 | 184 | 1.6 | 11.3 | 0.00 | 0.00 | 0.00 | 72 | 1012.0 |
| 20260502003554 | 13 | 184 | 1.6 | 11.3 | 0.00 | 0.00 | 0.00 | 72 | 1011.8 |
| 20260502003453 | 13 | 180 | 1.6 | 9.7 | 0.00 | 0.00 | 0.00 | 72 | 1011.7 |
| 20260502003352 | 13 | 180 | 3.2 | 9.7 | 0.00 | 0.00 | 0.00 | 72 | 1011.8 |
| 20260502003253 | 13 | 222 | 3.2 | 9.7 | 0.00 | 0.00 | 0.00 | 72 | 1011.7 |
| 20260502003153 | 13 | 211 | 3.2 | 9.7 | 0.00 | 0.00 | 0.00 | 72 | 1011.7 |
| 20260502003053 | 13 | 172 | 3.2 | 9.7 | 0.00 | 0.00 | 0.00 | 72 | 1011.7 |
| 20260502002954 | 13 | 172 | 3.2 | 9.7 | 0.00 | 0.00 | 0.00 | 72 | 1011.6 |
| 20260502002850 | 13 | 172 | 3.2 | 9.7 | 0.00 | 0.00 | 0.00 | 72 | 1011.7 |
| 20260502002749 | 13 | 173 | 4.8 | 9.7 | 0.00 | 0.00 | 0.00 | 72 | 1011.7 |
| 20260502002647 | 13 | 171 | 4.8 | 9.7 | 0.00 | 0.00 | 0.00 | 72 | 1011.7 |
| 20260502002537 | 13 | 169 | 3.2 | 9.7 | 0.00 | 0.00 | 0.00 | 72 | 1011.7 |
| 20260502002437 | 13 | 158 | 3.2 | 9.7 | 0.00 | 0.00 | 0.00 | 71 | 1011.6 |
| 20260502002338 | 13 | 167 | 3.2 | 9.7 | 0.00 | 0.00 | 0.00 | 71 | 1011.6 |
| 20260502002236 | 13 | 182 | 3.2 | 9.7 | 0.00 | 0.00 | 0.00 | 72 | 1011.6 |
| 20260502002136 | 13 | 162 | 3.2 | 9.7 | 0.00 | 0.00 | 0.00 | 71 | 1011.5 |
| 20260502002037 | 13 | 178 | 3.2 | 9.7 | 0.00 | 0.00 | 0.00 | 71 | 1011.5 |
| 20260502001934 | 13 | 165 | 3.2 | 9.7 | 0.00 | 0.00 | 0.00 | 71 | 1011.5 |
| 20260502001834 | 13 | 193 | 3.2 | 9.7 | 0.00 | 0.00 | 0.00 | 71 | 1011.5 |
| 20260502001733 | 13 | 219 | 3.2 | 9.7 | 0.00 | 0.00 | 0.00 | 71 | 1011.4 |
| 20260502001631 | 13 | 185 | 3.2 | 12.9 | 0.00 | 0.00 | 0.00 | 71 | 1011.4 |
| 20260502001524 | 13 | 188 | 3.2 | 12.9 | 0.00 | 0.00 | 0.00 | 71 | 1011.4 |
| 20260502001424 | 13 | 149 | 3.2 | 12.9 | 0.00 | 0.00 | 0.00 | 71 | 1011.3 |
| 20260502001324 | 13 | 149 | 3.2 | 12.9 | 0.00 | 0.00 | 0.00 | 71 | 1011.3 |
| 20260502001224 | 13 | 153 | 3.2 | 12.9 | 0.00 | 0.00 | 0.00 | 71 | 1011.3 |
| 20260502001124 | 13 | 164 | 4.8 | 12.9 | 0.00 | 0.00 | 0.00 | 71 | 1011.4 |
| 20260502001018 | 13 | 161 | 4.8 | 12.9 | 0.00 | 0.00 | 0.00 | 71 | 1011.3 |
| 20260502000918 | 13 | 153 | 3.2 | 12.9 | 0.00 | 0.00 | 0.00 | 71 | 1011.3 |
| 20260502000820 | 13 | 152 | 4.8 | 12.9 | 0.00 | 0.00 | 0.00 | 71 | 1011.2 |
| 20260502000718 | 13 | 165 | 3.2 | 12.9 | 0.00 | 0.00 | 0.00 | 71 | 1011.3 |
| 20260502000619 | 13 | 183 | 3.2 | 14.5 | 0.00 | 0.00 | 0.00 | 71 | 1011.3 |
| 20260502000519 | 13 | 184 | 4.8 | 14.5 | 0.00 | 0.00 | 0.00 | 70 | 1011.4 |
| 20260502000419 | 13 | 202 | 4.8 | 14.5 | 0.00 | 0.00 | 0.00 | 71 | 1011.3 |
| 20260502000319 | 13 | 172 | 4.8 | 14.5 | 0.00 | 0.00 | 0.00 | 71 | 1011.3 |
| 20260502000218 | 13 | 161 | 4.8 | 14.5 | 0.00 | 0.00 | 0.00 | 71 | 1011.3 |
| 20260502000114 | 13 | 161 | 4.8 | 14.5 | 0.00 | 0.00 | 0.00 | 71 | 1011.4 |
| 20260502000015 | 13 | 187 | 4.8 | 14.5 | 0.00 | 0.00 | 0.00 | 70 | 1011.3 |
| 20260501235916 | 13 | 174 | 4.8 | 14.5 | 0.00 | 0.00 | 0.00 | 70 | 1011.3 |
| 20260501235814 | 13 | 165 | 4.8 | 14.5 | 0.00 | 0.00 | 0.00 | 70 | 1011.4 |
| 20260501235715 | 13 | 158 | 4.8 | 14.5 | 0.00 | 0.00 | 0.00 | 70 | 1011.4 |
| 20260501235614 | 13 | 188 | 4.8 | 11.3 | 0.00 | 0.00 | 0.00 | 70 | 1011.3 |
| 20260501235515 | 13 | 184 | 4.8 | 11.3 | 0.00 | 0.00 | 0.00 | 70 | 1011.4 |
| 20260501235412 | 13 | 163 | 4.8 | 11.3 | 0.00 | 0.00 | 0.00 | 70 | 1011.3 |
| 20260501235307 | 13 | 161 | 4.8 | 9.7 | 0.00 | 0.00 | 0.00 | 70 | 1011.3 |
| 20260501235207 | 13 | 171 | 4.8 | 11.3 | 0.00 | 0.00 | 0.00 | 70 | 1011.3 |
| 20260501235107 | 13 | 178 | 4.8 | 11.3 | 0.00 | 0.00 | 0.00 | 71 | 1011.3 |
| 20260501235006 | 13 | 157 | 4.8 | 11.3 | 0.00 | 0.00 | 0.00 | 70 | 1011.3 |
| 20260501234906 | 13 | 161 | 4.8 | 11.3 | 0.00 | 0.00 | 0.00 | 70 | 1011.3 |
| 20260501234802 | 13 | 161 | 4.8 | 11.3 | 0.00 | 0.00 | 0.00 | 70 | 1011.3 |
| 20260501234701 | 13 | 185 | 4.8 | 11.3 | 0.00 | 0.00 | 0.00 | 70 | 1011.2 |
| 20260501234602 | 13 | 182 | 4.8 | 11.3 | 0.00 | 0.00 | 0.00 | 70 | 1011.1 |
| 20260501234502 | 13 | 171 | 4.8 | 11.3 | 0.00 | 0.00 | 0.00 | 69 | 1011.1 |
| 20260501234402 | 14 | 168 | 3.2 | 11.3 | 0.00 | 0.00 | 0.00 | 69 | 1011.2 |
| 20260501234303 | 14 | 188 | 3.2 | 11.3 | 0.00 | 0.00 | 0.00 | 70 | 1011.0 |
| 20260501234202 | 14 | 154 | 3.2 | 9.7 | 0.00 | 0.00 | 0.00 | 70 | 1011.1 |
| 20260501234102 | 14 | 157 | 3.2 | 9.7 | 0.00 | 0.00 | 0.00 | 70 | 1011.0 |
| 20260501234002 | 14 | 157 | 3.2 | 9.7 | 0.00 | 0.00 | 0.00 | 69 | 1011.1 |
| 20260501233903 | 14 | 148 | 3.2 | 9.7 | 0.00 | 0.00 | 0.00 | 69 | 1011.0 |
| 20260501233801 | 14 | 190 | 3.2 | 9.7 | 0.00 | 0.00 | 0.00 | 69 | 1011.0 |
| 20260501233701 | 14 | 167 | 3.2 | 9.7 | 0.00 | 0.00 | 0.00 | 69 | 1011.1 |
| 20260501233600 | 14 | 171 | 4.8 | 9.7 | 0.00 | 0.00 | 0.00 | 69 | 1011.0 |
| 20260501233501 | 14 | 171 | 4.8 | 9.7 | 0.00 | 0.00 | 0.00 | 69 | 1011.1 |
| 20260501233401 | 14 | 171 | 4.8 | 9.7 | 0.00 | 0.00 | 0.00 | 69 | 1011.0 |
| 20260501233300 | 14 | 171 | 4.8 | 9.7 | 0.00 | 0.00 | 0.00 | 68 | 1010.9 |
| 20260501233200 | 14 | 171 | 4.8 | 9.7 | 0.00 | 0.00 | 0.00 | 68 | 1011.0 |
| 20260501233058 | 14 | 171 | 4.8 | 12.9 | 0.00 | 0.00 | 0.00 | 68 | 1011.0 |
| 20260501232958 | 14 | 167 | 4.8 | 12.9 | 0.00 | 0.00 | 0.00 | 68 | 1011.0 |
| 20260501232858 | 14 | 159 | 4.8 | 12.9 | 0.00 | 0.00 | 0.00 | 68 | 1011.1 |
| 20260501232758 | 14 | 181 | 4.8 | 12.9 | 0.00 | 0.00 | 0.00 | 67 | 1011.0 |
| 20260501232656 | 14 | 181 | 4.8 | 12.9 | 0.00 | 0.00 | 0.00 | 67 | 1011.0 |
| 20260501232556 | 15 | 166 | 4.8 | 12.9 | 0.00 | 0.00 | 0.00 | 67 | 1011.0 |
| 20260501232456 | 15 | 166 | 4.8 | 12.9 | 0.00 | 0.00 | 0.00 | 67 | 1011.0 |
| 20260501232356 | 15 | 163 | 4.8 | 12.9 | 0.00 | 0.00 | 0.00 | 67 | 1011.0 |
| 20260501232256 | 15 | 163 | 4.8 | 12.9 | 0.00 | 0.00 | 0.00 | 67 | 1011.0 |
| 20260501232154 | 15 | 159 | 4.8 | 12.9 | 0.00 | 0.00 | 0.00 | 67 | 1011.0 |
| 20260501232053 | 15 | 177 | 4.8 | 14.5 | 0.00 | 0.00 | 0.00 | 67 | 1011.1 |
| 20260501231950 | 15 | 178 | 4.8 | 14.5 | 0.00 | 0.00 | 0.00 | 67 | 1011.0 |
| 20260501231851 | 15 | 163 | 4.8 | 14.5 | 0.00 | 0.00 | 0.00 | 67 | 1011.2 |
| 20260501231748 | 15 | 163 | 4.8 | 14.5 | 0.00 | 0.00 | 0.00 | 66 | 1011.1 |
| 20260501231648 | 15 | 162 | 4.8 | 14.5 | 0.00 | 0.00 | 0.00 | 66 | 1011.1 |
| 20260501231548 | 15 | 164 | 6.4 | 14.5 | 0.00 | 0.00 | 0.00 | 66 | 1011.1 |
| 20260501231449 | 15 | 160 | 6.4 | 14.5 | 0.00 | 0.00 | 0.00 | 66 | 1011.2 |
| 20260501231347 | 15 | 155 | 6.4 | 14.5 | 0.00 | 0.00 | 0.00 | 66 | 1011.2 |
| 20260501231246 | 15 | 134 | 6.4 | 14.5 | 0.00 | 0.00 | 0.00 | 66 | 1011.2 |
| 20260501231147 | 15 | 176 | 6.4 | 14.5 | 0.00 | 0.00 | 0.00 | 65 | 1011.2 |
| 20260501231046 | 15 | 139 | 6.4 | 14.5 | 0.00 | 0.00 | 0.00 | 66 | 1011.2 |
| 20260501230946 | 15 | 163 | 6.4 | 14.5 | 0.00 | 0.00 | 0.00 | 66 | 1011.3 |
| 20260501230838 | 15 | 163 | 6.4 | 14.5 | 0.00 | 0.00 | 0.00 | 65 | 1011.1 |
| 20260501230738 | 15 | 169 | 6.4 | 14.5 | 0.00 | 0.00 | 0.00 | 65 | 1011.1 |
| 20260501230639 | 15 | 173 | 6.4 | 14.5 | 0.00 | 0.00 | 0.00 | 65 | 1011.2 |
| 20260501230538 | 15 | 155 | 6.4 | 11.3 | 0.00 | 0.00 | 0.00 | 65 | 1011.1 |
| 20260501230438 | 15 | 163 | 6.4 | 11.3 | 0.00 | 0.00 | 0.00 | 64 | 1011.1 |
| 20260501230335 | 15 | 157 | 6.4 | 12.9 | 0.00 | 0.00 | 0.00 | 65 | 1011.2 |
| 20260501230231 | 15 | 162 | 6.4 | 12.9 | 0.00 | 0.00 | 0.00 | 65 | 1011.2 |
| 20260501230132 | 15 | 153 | 6.4 | 14.5 | 0.00 | 0.00 | 0.00 | 65 | 1011.1 |
| 20260501230032 | 15 | 194 | 6.4 | 14.5 | 0.00 | 0.00 | 0.00 | 64 | 1011.2 |
| 20260501225930 | 15 | 161 | 6.4 | 14.5 | 0.00 | 0.00 | 0.00 | 64 | 1011.2 |
| 20260501225824 | 15 | 190 | 6.4 | 14.5 | 0.00 | 0.00 | 0.00 | 64 | 1011.2 |
| 20260501225725 | 15 | 161 | 6.4 | 14.5 | 0.00 | 0.00 | 0.00 | 64 | 1011.3 |
| 20260501225622 | 15 | 174 | 4.8 | 14.5 | 0.00 | 0.00 | 0.00 | 64 | 1011.3 |
| 20260501225523 | 15 | 175 | 6.4 | 14.5 | 0.00 | 0.00 | 0.00 | 63 | 1011.3 |
| 20260501225420 | 15 | 186 | 4.8 | 14.5 | 0.00 | 0.00 | 0.00 | 63 | 1011.3 |
| 20260501225321 | 15 | 245 | 4.8 | 14.5 | 0.00 | 0.00 | 0.00 | 63 | 1011.3 |
| 20260501225221 | 15 | 166 | 4.8 | 14.5 | 0.00 | 0.00 | 0.00 | 63 | 1011.3 |
| 20260501225120 | 15 | 186 | 4.8 | 12.9 | 0.00 | 0.00 | 0.00 | 64 | 1011.3 |
| 20260501225021 | 15 | 178 | 4.8 | 12.9 | 0.00 | 0.00 | 0.00 | 64 | 1011.3 |
| 20260501224921 | 15 | 178 | 4.8 | 12.9 | 0.00 | 0.00 | 0.00 | 63 | 1011.4 |
| 20260501224820 | 15 | 99 | 4.8 | 12.9 | 0.00 | 0.00 | 0.00 | 63 | 1011.3 |
| 20260501224720 | 15 | 200 | 4.8 | 12.9 | 0.00 | 0.00 | 0.00 | 63 | 1011.4 |
| 20260501224620 | 15 | 163 | 6.4 | 12.9 | 0.00 | 0.00 | 0.00 | 62 | 1011.4 |
| 20260501224519 | 15 | 149 | 6.4 | 12.9 | 0.00 | 0.00 | 0.00 | 63 | 1011.5 |
| 20260501224417 | 15 | 173 | 6.4 | 19.3 | 0.00 | 0.00 | 0.00 | 62 | 1011.4 |
| 20260501224317 | 15 | 170 | 6.4 | 19.3 | 0.00 | 0.00 | 0.00 | 62 | 1011.3 |
| 20260501224217 | 15 | 171 | 6.4 | 19.3 | 0.00 | 0.00 | 0.00 | 62 | 1011.4 |
| 20260501224116 | 15 | 163 | 6.4 | 19.3 | 0.00 | 0.00 | 0.00 | 62 | 1011.4 |
| 20260501224015 | 15 | 188 | 6.4 | 19.3 | 0.00 | 0.00 | 0.00 | 62 | 1011.4 |
| 20260501223917 | 15 | 148 | 6.4 | 19.3 | 0.00 | 0.00 | 0.00 | 62 | 1011.4 |
| 20260501223817 | 15 | 159 | 6.4 | 19.3 | 0.00 | 0.00 | 0.00 | 62 | 1011.3 |
| 20260501223715 | 16 | 130 | 6.4 | 19.3 | 0.00 | 0.00 | 0.00 | 62 | 1011.4 |
| 20260501223609 | 16 | 158 | 6.4 | 19.3 | 0.00 | 0.00 | 0.00 | 61 | 1011.4 |
| 20260501223508 | 16 | 167 | 4.8 | 19.3 | 0.00 | 0.00 | 0.00 | 62 | 1011.4 |
| 20260501223409 | 16 | 153 | 4.8 | 12.9 | 0.00 | 0.00 | 0.00 | 61 | 1011.3 |
| 20260501223308 | 16 | 128 | 4.8 | 12.9 | 0.00 | 0.00 | 0.00 | 62 | 1011.3 |
| 20260501223209 | 16 | 139 | 4.8 | 9.7 | 0.00 | 0.00 | 0.00 | 62 | 1011.3 |
| 20260501223103 | 16 | 174 | 4.8 | 9.7 | 0.00 | 0.00 | 0.00 | 62 | 1011.3 |
| 20260501223002 | 16 | 168 | 4.8 | 9.7 | 0.00 | 0.00 | 0.00 | 61 | 1011.3 |
| 20260501222902 | 16 | 185 | 4.8 | 9.7 | 0.00 | 0.00 | 0.00 | 61 | 1011.2 |
| 20260501222803 | 16 | 196 | 4.8 | 9.7 | 0.00 | 0.00 | 0.00 | 62 | 1011.3 |
| 20260501222703 | 16 | 151 | 4.8 | 11.3 | 0.00 | 0.00 | 0.00 | 62 | 1011.3 |
| 20260501222601 | 16 | 168 | 4.8 | 11.3 | 0.00 | 0.00 | 0.00 | 61 | 1011.2 |
| 20260501222502 | 16 | 166 | 4.8 | 11.3 | 0.00 | 0.00 | 0.00 | 61 | 1011.2 |
| 20260501222403 | 16 | 175 | 4.8 | 11.3 | 0.00 | 0.00 | 0.00 | 61 | 1011.2 |
| 20260501222305 | 16 | 142 | 4.8 | 11.3 | 0.00 | 0.00 | 0.00 | 61 | 1011.3 |
| 20260501222102 | 16 | 163 | 6.4 | 12.9 | 0.00 | 0.00 | 0.00 | 61 | 1011.3 |
| 20260501222002 | 16 | 163 | 6.4 | 14.5 | 0.00 | 0.00 | 0.00 | 62 | 1011.2 |
| 20260501221900 | 16 | 163 | 6.4 | 16.1 | 0.00 | 0.00 | 0.00 | 61 | 1011.3 |
| 20260501221800 | 16 | 170 | 6.4 | 16.1 | 0.00 | 0.00 | 0.00 | 61 | 1011.3 |
| 20260501221701 | 16 | 167 | 6.4 | 16.1 | 0.00 | 0.00 | 0.00 | 61 | 1011.3 |
| 20260501221600 | 16 | 151 | 6.4 | 16.1 | 0.00 | 0.00 | 0.00 | 61 | 1011.2 |
| 20260501221500 | 16 | 159 | 6.4 | 16.1 | 0.00 | 0.00 | 0.00 | 61 | 1011.3 |
| 20260501221357 | 16 | 171 | 6.4 | 16.1 | 0.00 | 0.00 | 0.00 | 61 | 1011.3 |
| 20260501221255 | 16 | 156 | 6.4 | 16.1 | 0.00 | 0.00 | 0.00 | 61 | 1011.3 |
| 20260501221155 | 16 | 200 | 6.4 | 16.1 | 0.00 | 0.00 | 0.00 | 60 | 1011.3 |
| 20260501221054 | 16 | 134 | 6.4 | 16.1 | 0.00 | 0.00 | 0.00 | 60 | 1011.3 |
| 20260501220955 | 16 | 148 | 4.8 | 16.1 | 0.00 | 0.00 | 0.00 | 61 | 1011.3 |
| 20260501220846 | 16 | 142 | 4.8 | 14.5 | 0.00 | 0.00 | 0.00 | 61 | 1011.3 |
| 20260501220746 | 16 | 95 | 4.8 | 14.5 | 0.00 | 0.00 | 0.00 | 63 | 1011.3 |
| 20260501220648 | 16 | 146 | 4.8 | 12.9 | 0.00 | 0.00 | 0.00 | 62 | 1011.3 |
| 20260501220546 | 16 | 144 | 4.8 | 12.9 | 0.00 | 0.00 | 0.00 | 62 | 1011.3 |
| 20260501220445 | 16 | 144 | 4.8 | 12.9 | 0.00 | 0.00 | 0.00 | 62 | 1011.4 |
| 20260501220339 | 16 | 155 | 4.8 | 12.9 | 0.00 | 0.00 | 0.00 | 61 | 1011.3 |
| 20260501220237 | 16 | 182 | 6.4 | 14.5 | 0.00 | 0.00 | 0.00 | 61 | 1011.3 |
| 20260501220139 | 16 | 150 | 6.4 | 14.5 | 0.00 | 0.00 | 0.00 | 62 | 1011.4 |
| 20260501220038 | 16 | 147 | 6.4 | 14.5 | 0.00 | 0.00 | 0.00 | 61 | 1011.4 |
| 20260501215938 | 16 | 150 | 6.4 | 14.5 | 0.00 | 0.00 | 0.00 | 62 | 1011.4 |
| 20260501215836 | 16 | 148 | 8.0 | 14.5 | 0.00 | 0.00 | 0.00 | 60 | 1011.4 |
| 20260501215737 | 16 | 139 | 8.0 | 14.5 | 0.00 | 0.00 | 0.00 | 61 | 1011.4 |
| 20260501215636 | 16 | 138 | 8.0 | 14.5 | 0.00 | 0.00 | 0.00 | 60 | 1011.4 |
| 20260501215536 | 16 | 138 | 8.0 | 14.5 | 0.00 | 0.00 | 0.00 | 60 | 1011.4 |
| 20260501215433 | 16 | 138 | 8.0 | 14.5 | 0.00 | 0.00 | 0.00 | 59 | 1011.4 |
| 20260501215326 | 16 | 113 | 8.0 | 14.5 | 0.00 | 0.00 | 0.00 | 59 | 1011.4 |
| 20260501215226 | 16 | 126 | 6.4 | 14.5 | 0.00 | 0.00 | 0.00 | 59 | 1011.4 |
| 20260501215126 | 16 | 123 | 6.4 | 14.5 | 0.00 | 0.00 | 0.00 | 60 | 1011.4 |
| 20260501215025 | 16 | 162 | 6.4 | 14.5 | 0.00 | 0.00 | 0.00 | 59 | 1011.4 |
| 20260501214922 | 16 | 119 | 6.4 | 14.5 | 0.00 | 0.00 | 0.00 | 58 | 1011.4 |
| 20260501214819 | 16 | 136 | 6.4 | 14.5 | 0.00 | 0.00 | 0.00 | 58 | 1011.5 |
| 20260501214721 | 16 | 150 | 4.8 | 11.3 | 0.00 | 0.00 | 0.00 | 58 | 1011.5 |
| 20260501214618 | 16 | 131 | 4.8 | 11.3 | 0.00 | 0.00 | 0.00 | 59 | 1011.4 |
| 20260501214517 | 17 | 120 | 4.8 | 11.3 | 0.00 | 0.00 | 0.00 | 58 | 1011.5 |
| 20260501214416 | 17 | 154 | 4.8 | 16.1 | 0.00 | 0.00 | 0.00 | 58 | 1011.6 |
| 20260501214311 | 17 | 201 | 4.8 | 16.1 | 0.00 | 0.00 | 0.00 | 57 | 1011.6 |
| 20260501214211 | 17 | 182 | 4.8 | 16.1 | 0.00 | 0.00 | 0.00 | 58 | 1011.5 |
| 20260501214111 | 17 | 167 | 4.8 | 16.1 | 0.00 | 0.00 | 0.00 | 58 | 1011.5 |
| 20260501214009 | 17 | 139 | 4.8 | 16.1 | 0.00 | 0.00 | 0.00 | 57 | 1011.5 |
| 20260501213911 | 17 | 151 | 4.8 | 16.1 | 0.00 | 0.00 | 0.00 | 60 | 1011.4 |
| 20260501213802 | 17 | 171 | 6.4 | 16.1 | 0.00 | 0.00 | 0.00 | 59 | 1011.4 |
| 20260501213703 | 17 | 171 | 6.4 | 16.1 | 0.00 | 0.00 | 0.00 | 58 | 1011.4 |
| 20260501213602 | 17 | 175 | 4.8 | 16.1 | 0.00 | 0.00 | 0.00 | 57 | 1011.5 |
| 20260501213504 | 17 | 156 | 4.8 | 16.1 | 0.00 | 0.00 | 0.00 | 58 | 1011.5 |
| 20260501213401 | 17 | 141 | 4.8 | 12.9 | 0.00 | 0.00 | 0.00 | 58 | 1011.5 |
| 20260501213254 | 17 | 148 | 4.8 | 12.9 | 0.00 | 0.00 | 0.00 | 58 | 1011.5 |
| 20260501213207 | 17 | 138 | 3.2 | 12.9 | 0.00 | 0.00 | 0.00 | 57 | 1011.5 |
| 20260501213053 | 17 | 136 | 3.2 | 12.9 | 0.00 | 0.00 | 0.00 | 57 | 1011.4 |
| 20260501212954 | 17 | 164 | 3.2 | 12.9 | 0.00 | 0.00 | 0.00 | 56 | 1011.5 |
| 20260501212855 | 17 | 143 | 3.2 | 12.9 | 0.00 | 0.00 | 0.00 | 58 | 1011.5 |
| 20260501212751 | 17 | 141 | 4.8 | 12.9 | 0.00 | 0.00 | 0.00 | 58 | 1011.4 |
| 20260501212648 | 17 | 157 | 4.8 | 12.9 | 0.00 | 0.00 | 0.00 | 59 | 1011.5 |
| 20260501212549 | 16 | 154 | 4.8 | 12.9 | 0.00 | 0.00 | 0.00 | 59 | 1011.5 |
| 20260501212448 | 16 | 151 | 4.8 | 12.9 | 0.00 | 0.00 | 0.00 | 59 | 1011.5 |
| 20260501212349 | 16 | 151 | 4.8 | 12.9 | 0.00 | 0.00 | 0.00 | 58 | 1011.5 |
| 20260501212241 | 16 | 150 | 4.8 | 12.9 | 0.00 | 0.00 | 0.00 | 58 | 1011.5 |
| 20260501212138 | 16 | 162 | 6.4 | 12.9 | 0.00 | 0.00 | 0.00 | 57 | 1011.5 |
| 20260501212039 | 16 | 146 | 6.4 | 16.1 | 0.00 | 0.00 | 0.00 | 58 | 1011.6 |
| 20260501211938 | 16 | 146 | 6.4 | 16.1 | 0.00 | 0.00 | 0.00 | 57 | 1011.5 |
| 20260501211839 | 16 | 151 | 6.4 | 16.1 | 0.00 | 0.00 | 0.00 | 57 | 1011.6 |
| 20260501211735 | 16 | 142 | 6.4 | 16.1 | 0.00 | 0.00 | 0.00 | 58 | 1011.5 |
| 20260501211633 | 16 | 160 | 6.4 | 16.1 | 0.00 | 0.00 | 0.00 | 57 | 1011.5 |
| 20260501211532 | 16 | 161 | 6.4 | 16.1 | 0.00 | 0.00 | 0.00 | 56 | 1011.5 |
| 20260501211432 | 16 | 223 | 6.4 | 16.1 | 0.00 | 0.00 | 0.00 | 57 | 1011.6 |
| 20260501211332 | 16 | 165 | 6.4 | 16.1 | 0.00 | 0.00 | 0.00 | 57 | 1011.7 |
| 20260501211227 | 16 | 190 | 6.4 | 16.1 | 0.00 | 0.00 | 0.00 | 57 | 1011.6 |
| 20260501211125 | 16 | 168 | 6.4 | 16.1 | 0.00 | 0.00 | 0.00 | 56 | 1011.6 |
| 20260501211027 | 16 | 134 | 6.4 | 12.9 | 0.00 | 0.00 | 0.00 | 57 | 1011.7 |
| 20260501210926 | 16 | 167 | 6.4 | 16.1 | 0.00 | 0.00 | 0.00 | 56 | 1011.6 |
| 20260501210826 | 16 | 142 | 6.4 | 16.1 | 0.00 | 0.00 | 0.00 | 57 | 1011.5 |
| 20260501210720 | 16 | 144 | 6.4 | 16.1 | 0.00 | 0.00 | 0.00 | 57 | 1011.6 |
| 20260501210621 | 16 | 180 | 6.4 | 16.1 | 0.00 | 0.00 | 0.00 | 57 | 1011.6 |